GFSFLT2_925_thetae_003.txt.gz
Theta_e
325 323 322 322 323 322 322 320 319 319 319 318 319 325 321 319 317 318 317 309 314 314 314 311 310 309 314 316 317 312 323 326
328 331 328 322 320 321 319 319 318 319 322 323 328 328 327 324 323 324 322 322 321 319 319 319 317 317 318 317 318 318 321 326
333 334 334 328 322 323 317 322 326 328 327 330 329 328 327 325 326 326 324 324 322 322 320 321 320 320 318 316 317 318 321 322
333 331 333 332 327 326 325 330 329 330 329 331 329 327 326 327 327 326 323 323 323 322 321 321 320 320 319 312 314 316 317 318
331 331 327 330 328 328 328 330 331 330 330 328 328 327 329 325 324 321 319 320 320 320 321 320 320 319 318 313 309 310 313 315
333 330 330 329 325 328 329 329 330 330 329 329 328 326 324 321 320 317 318 317 318 319 321 319 319 319 316 313 310 309 310 310
333 328 324 327 329 329 329 329 327 326 327 327 322 324 322 321 320 319 319 319 318 318 317 317 318 318 318 316 311 311 310 309
334 332 332 328 327 329 329 328 325 324 325 322 319 320 322 321 320 319 319 320 320 319 318 318 319 319 319 318 316 313 312 311
333 332 331 326 327 327 330 324 321 322 321 321 321 321 321 321 320 320 318 318 319 318 318 318 319 318 319 319 318 317 314 312
334 328 325 327 326 325 324 322 321 322 320 321 320 317 318 317 316 314 317 317 317 317 316 318 319 319 319 319 319 318 316 315
334 329 327 324 324 324 323 322 321 319 317 316 315 315 315 314 313 313 313 314 313 314 315 313 312 311 311 313 316 317 318 318
328 327 324 323 323 322 320 317 315 315 314 313 312 313 313 313 311 312 312 311 311 311 310 311 311 311 311 310 315 314 317 315
324 322 319 322 319 317 315 314 314 314 312 312 312 312 312 312 311 311 310 310 308 308 308 306 307 308 308 310 310 309 311 311
316 316 315 315 315 313 313 313 313 312 312 312 312 312 312 310 309 308 307 307 306 306 305 308 307 307 308 309 308 310 310 311
315 314 314 313 313 313 312 312 312 313 313 313 310 309 308 307 306 305 305 307 306 304 305 305 306 306 308 308 306 306 305 308
314 313 313 312 311 311 311 312 313 312 309 308 308 305 305 304 304 303 303 304 304 304 303 305 306 306 306 306 303 302 302 301
314 313 313 312 311 310 311 311 308 307 308 306 304 303 301 302 302 302 302 303 303 302 302 302 303 303 302 302 302 301 300 300
314 313 312 312 311 311 310 308 307 307 304 304 303 301 301 301 301 302 301 301 301 301 299 301 301 301 300 299 299 299 298 298
314 314 314 312 311 310 309 308 305 303 302 301 300 301 300 300 301 300 299 298 298 298 298 299 299 298 298 298 298 297 296 296
315 314 314 313 312 308 305 304 303 303 302 301 300 300 302 300 300 300 299 298 298 297 297 296 296 296 296 296 296 296 296 295

GFSFLT2_925_thetae_006.txt.gz
Theta_e
337 333 330 326 324 322 320 319 318 318 318 316 321 321 318 318 319 322 321 321 320 318 318 318 316 315 316 316 317 318 319 324
325 322 319 319 320 320 318 317 318 319 319 325 324 324 323 324 324 324 322 323 321 321 319 320 319 318 318 315 315 317 320 324
328 327 323 316 317 317 317 320 323 325 328 328 327 324 325 326 326 325 323 323 322 321 320 319 319 319 318 316 310 314 317 319
332 330 327 324 322 319 326 325 327 326 329 328 328 326 327 327 326 323 321 321 319 320 320 320 319 318 318 316 312 309 310 314
332 330 330 327 326 326 328 328 328 327 328 327 328 328 328 324 322 318 317 317 317 318 320 319 318 318 318 317 315 312 310 309
330 328 330 330 328 328 328 329 330 330 329 328 327 326 323 320 318 318 318 318 318 318 317 317 317 318 318 318 318 316 314 311
331 328 330 328 326 328 329 329 329 330 329 327 322 323 321 320 320 320 319 320 320 319 318 318 318 318 319 319 319 318 316 315
331 324 327 328 329 328 328 327 325 327 325 324 319 319 322 321 320 320 317 318 318 318 318 317 316 318 319 319 319 319 318 315
330 330 330 326 328 329 328 323 324 324 324 322 321 321 321 320 316 313 313 314 315 315 315 317 316 313 311 311 312 313 316 317
332 324 323 327 327 327 329 321 321 321 321 320 317 317 316 315 314 313 312 312 312 313 312 312 311 310 310 310 309 311 314 314
331 326 328 325 325 324 322 321 321 318 316 315 314 314 313 313 312 312 312 312 311 310 310 308 307 307 307 306 306 306 306 307
330 325 325 325 323 323 320 318 315 313 313 313 312 312 311 311 311 310 311 311 309 308 307 307 306 306 305 305 304 304 306 310
326 327 325 319 316 316 315 314 313 312 312 312 312 312 312 311 309 309 308 307 306 305 306 306 305 304 304 305 305 304 305 305
315 316 317 315 316 314 313 312 312 312 313 312 311 309 307 307 305 304 304 305 305 304 304 304 305 305 306 306 303 304 304 305
313 313 314 314 312 312 311 312 312 313 312 310 309 307 305 303 303 302 302 302 303 303 302 302 304 305 306 306 303 303 302 304
313 313 313 312 312 312 312 312 312 309 307 307 306 304 302 301 301 301 301 302 301 301 301 301 301 302 303 303 302 301 301 301
313 313 312 312 311 311 311 311 308 307 307 305 303 302 301 300 300 301 301 300 300 299 300 301 300 301 300 300 300 299 299 298
313 314 313 312 311 311 311 309 307 306 303 302 302 301 300 300 300 300 299 299 298 298 297 297 297 296 297 297 297 298 297 297
314 313 314 312 312 310 309 306 304 302 303 304 303 300 300 300 300 299 299 298 297 297 296 295 293 293 294 295 295 295 295 295
313 311 310 310 306 304 304 304 304 305 304 304 302 301 300 299 298 297 296 294 293 293 293 292 291 290 291 292 292 293 294 294

GFSFLT2_925_thetae_009.txt.gz
Theta_e
339 339 337 333 329 325 322 319 317 316 316 319 320 318 319 321 323 321 321 321 319 319 317 317 317 317 316 313 310 315 319 321
337 332 329 325 323 320 318 316 316 318 320 324 324 322 324 324 324 323 322 322 320 319 318 317 316 316 316 315 312 308 313 318
324 323 321 321 320 318 316 317 319 322 326 326 324 324 325 325 325 324 322 320 319 320 319 318 317 317 317 316 316 313 310 308
323 322 317 318 316 316 319 323 324 327 328 326 325 326 326 326 324 322 321 319 318 318 319 319 318 317 317 317 317 316 316 314
327 325 321 320 318 323 325 326 327 326 327 326 327 327 326 323 320 317 318 318 318 318 318 319 319 318 318 318 318 318 317 316
330 329 325 325 323 326 327 327 327 327 326 325 325 325 323 319 318 318 319 319 319 320 318 318 318 317 318 318 318 318 318 317
331 330 328 327 327 326 328 328 328 329 328 325 321 322 320 319 320 320 319 317 317 317 317 317 316 315 316 315 315 316 317 318
331 330 330 329 327 328 328 329 328 329 328 327 325 323 323 321 320 316 313 312 312 312 313 314 315 313 313 312 311 311 313 315
331 329 329 328 328 328 328 328 325 327 328 328 323 321 321 319 315 314 313 312 312 312 312 312 311 310 309 309 308 308 307 306
330 329 328 327 328 328 327 324 324 325 325 320 318 317 315 315 313 311 311 311 311 311 310 309 308 307 306 306 305 304 304 304
330 328 326 326 324 324 321 319 318 318 316 314 314 313 312 311 311 311 310 311 310 307 306 306 306 306 305 304 303 302 302 303
325 327 326 324 323 320 317 316 314 313 312 312 311 311 311 311 310 309 308 307 306 305 305 304 304 304 303 302 302 301 301 305
326 324 318 319 315 316 316 313 312 312 312 311 310 310 308 307 306 305 304 303 303 302 302 302 302 303 303 304 302 302 302 304
319 318 316 318 318 314 313 312 312 312 310 310 309 307 305 305 304 302 301 301 300 301 301 301 301 301 304 304 301 302 303 302
314 314 315 315 316 312 312 311 312 312 309 308 306 304 303 302 301 300 301 301 300 300 300 301 301 301 301 302 301 300 299 301
312 312 312 312 312 311 311 311 311 309 307 304 303 302 300 300 300 300 300 299 299 298 298 299 299 299 299 299 299 300 297 297
313 313 312 312 311 311 311 311 308 306 303 302 303 301 300 300 301 301 300 299 298 298 297 297 297 296 295 295 296 296 298 296
310 310 311 311 311 310 309 309 306 302 304 305 305 303 304 304 303 299 299 298 297 297 296 294 292 292 292 293 294 295 295 295
312 312 311 309 308 306 305 304 303 304 304 306 306 304 303 302 300 299 296 295 294 293 292 291 290 289 289 290 291 291 293 293
309 308 306 306 306 306 306 306 305 305 305 304 303 302 302 300 298 294 293 293 293 291 290 289 289 289 289 289 290 291 290 290

GFSFLT2_925_thetae_012.txt.gz
Theta_e
337 336 334 333 333 330 325 322 318 317 315 319 317 315 321 322 320 320 319 318 317 316 316 316 316 316 316 315 314 309 309 311
341 337 336 334 331 325 321 319 317 317 320 322 321 322 323 323 323 321 320 319 318 318 317 316 316 316 316 316 316 315 314 312
337 336 333 328 325 321 319 317 317 320 323 324 323 324 324 324 323 321 320 319 318 318 319 318 317 317 317 317 317 317 316 315
334 330 326 324 321 318 316 317 321 325 325 324 324 325 325 322 321 319 318 318 318 318 318 318 318 318 317 317 318 318 317 317
326 323 320 318 317 316 320 322 324 327 326 325 326 326 324 319 318 317 318 318 319 319 318 318 318 317 315 315 316 317 318 318
324 322 319 318 317 320 323 326 325 326 326 325 324 324 322 319 318 318 319 319 318 317 317 317 315 315 314 313 313 314 315 316
326 325 322 322 320 324 326 326 327 327 327 326 324 325 322 319 320 319 318 315 314 314 313 313 313 313 313 312 310 309 309 310
329 328 325 324 326 324 326 328 328 328 328 328 327 325 323 320 320 316 312 312 312 311 311 311 311 310 310 308 307 305 304 304
330 330 330 327 328 327 327 327 328 329 329 329 327 322 321 318 313 311 311 311 311 311 310 309 307 306 306 305 305 304 303 302
330 330 329 327 326 327 327 327 324 325 324 320 317 316 313 312 311 311 310 310 310 308 306 306 306 304 304 303 303 302 302 301
329 328 326 323 324 324 320 318 317 315 315 314 312 312 311 311 311 310 309 308 306 305 303 303 302 302 301 301 301 300 300 304
327 326 325 324 320 318 313 313 313 313 313 312 311 311 311 310 307 306 305 304 303 302 301 300 300 300 299 299 297 300 302 303
326 326 325 318 315 317 315 313 312 312 311 311 310 308 307 306 304 303 301 301 300 300 299 299 299 300 300 298 298 302 300 300
324 319 315 317 317 317 315 312 312 311 309 308 305 304 303 302 301 300 300 300 299 298 297 297 298 300 301 301 299 299 301 297
315 316 315 316 315 311 311 311 311 311 308 304 302 301 301 300 301 303 301 299 299 298 297 297 298 298 300 299 298 297 298 298
311 311 311 311 311 311 311 310 310 308 305 302 302 302 302 302 303 304 302 300 298 298 297 297 297 297 297 298 296 297 297 296
311 311 311 311 310 310 310 309 307 304 302 304 305 305 303 302 302 302 300 298 297 297 296 295 294 292 293 293 293 294 295 296
311 311 311 310 309 308 308 307 306 304 304 304 305 304 303 302 302 300 298 296 295 293 292 291 290 289 289 290 291 292 292 292
310 309 307 306 306 306 305 304 304 304 304 304 304 303 302 301 300 298 295 293 292 292 290 289 289 289 288 288 289 290 291 291
307 306 305 305 305 305 304 304 304 303 303 303 303 302 301 300 299 295 293 296 293 290 290 289 288 288 288 288 289 289 289 288

GFSFLT2_925_thetae_015.txt.gz
Theta_e
338 337 336 333 331 331 329 323 318 317 317 315 313 320 321 320 320 319 318 318 317 316 316 316 316 316 316 316 315 315 315 314
336 335 334 332 333 331 325 320 317 317 320 317 318 321 322 321 320 319 318 317 317 317 317 317 316 316 317 317 316 315 316 316
338 335 334 334 331 327 322 318 317 318 322 321 322 323 323 322 320 319 318 317 317 317 318 318 317 317 317 316 317 317 315 317
337 340 336 333 329 323 320 318 318 322 323 322 324 324 324 322 321 319 317 317 317 318 318 318 318 317 315 314 314 315 316 317
337 337 331 328 324 321 319 319 321 325 325 324 325 325 325 321 319 317 318 318 318 318 318 317 316 315 313 312 312 313 315 315
331 329 327 325 322 320 320 321 324 326 327 326 326 327 323 319 318 319 318 317 315 314 313 313 313 312 311 311 311 310 309 309
330 328 325 322 322 321 322 325 326 327 327 327 326 325 323 319 319 318 315 312 312 311 311 311 311 310 310 309 307 306 305 307
328 326 323 323 323 324 324 326 327 327 327 326 327 325 323 320 318 313 311 311 311 311 311 310 309 308 307 306 304 304 304 304
328 327 326 324 327 326 326 327 327 327 327 326 326 321 320 317 312 312 312 311 310 310 309 307 306 306 305 305 304 304 304 301
328 328 327 326 323 322 323 324 323 322 322 318 318 315 314 313 311 311 309 308 307 307 306 306 306 305 304 304 304 303 303 304
328 327 324 324 324 322 323 319 318 317 316 314 312 311 311 310 309 307 306 306 305 304 302 302 304 302 301 302 300 301 303 305
327 325 324 324 324 322 317 314 313 312 311 311 310 309 308 307 305 304 304 303 302 300 300 301 301 301 299 300 299 300 304 304
325 325 324 324 318 314 315 315 313 311 310 309 309 307 305 304 303 302 301 301 301 301 300 300 300 300 300 299 299 302 303 301
325 325 321 317 318 317 315 313 312 310 308 307 305 303 302 301 301 303 303 302 300 299 299 300 300 300 298 298 299 298 299 300
316 315 315 316 315 313 312 311 310 308 305 304 303 303 304 304 303 303 303 302 301 299 299 299 299 299 299 297 298 298 298 297
314 312 311 310 310 309 309 310 310 307 304 303 304 304 303 302 302 301 302 299 298 298 297 296 295 294 294 296 295 295 295 295
309 309 309 309 309 309 309 308 307 305 304 304 304 304 303 302 301 301 301 298 296 294 294 293 292 292 292 292 292 292 292 294
309 309 307 307 306 305 304 304 304 304 304 304 304 303 303 302 301 300 298 296 294 293 291 292 292 291 290 290 290 290 290 290
307 307 305 305 304 304 303 303 303 303 303 303 301 301 302 302 301 299 297 293 293 293 292 289 291 290 290 289 290 289 290 290
305 305 304 303 301 299 299 298 298 296 294 294 296 297 298 298 299 298 294 295 294 294 292 292 291 291 290 290 290 290 290 290

GFSFLT2_925_thetae_018.txt.gz
Theta_e
338 337 336 335 336 333 330 324 319 319 318 315 315 320 319 319 318 318 318 317 317 316 316 316 316 316 316 316 316 316 318 317
339 338 338 337 335 332 328 322 319 318 318 314 319 321 321 320 320 319 319 318 318 317 317 317 317 316 316 316 315 318 318 317
338 336 336 336 334 333 327 321 319 320 320 318 323 325 326 325 322 318 318 317 317 317 317 318 317 319 317 314 316 316 317 317
337 337 337 336 332 330 328 325 324 327 327 327 327 328 328 326 322 317 317 317 318 318 318 318 319 317 317 316 316 316 316 316
336 335 335 333 330 327 324 325 327 329 330 330 330 329 329 326 324 322 323 320 321 320 320 318 318 317 315 316 315 314 314 314
335 333 335 331 327 325 325 326 329 330 330 331 331 329 328 325 322 323 323 321 319 318 318 318 317 315 315 314 313 312 312 312
333 332 331 329 327 327 328 330 329 331 331 331 330 329 328 324 324 322 320 318 317 317 317 315 314 313 313 312 311 311 311 311
332 329 328 327 328 329 329 329 328 327 328 328 326 325 323 325 322 319 318 317 316 315 314 312 312 311 311 311 310 309 309 310
331 330 328 329 327 324 321 321 325 326 326 326 325 322 321 319 318 317 316 315 314 313 312 311 311 310 310 309 309 309 308 308
332 330 329 326 325 322 320 320 322 322 322 321 320 317 315 314 316 315 313 312 311 311 310 309 309 308 307 307 307 306 305 307
332 331 329 326 323 323 323 321 320 317 316 315 314 313 313 314 313 311 310 309 309 308 308 307 307 306 306 305 305 305 305 306
332 330 328 324 323 324 322 319 316 315 314 313 312 311 310 310 310 309 308 307 307 307 307 307 306 306 305 304 304 303 303 304
330 327 326 325 324 321 319 319 317 314 312 310 310 309 308 308 307 307 307 307 307 306 306 305 304 304 303 302 301 301 303 303
329 328 325 323 322 321 321 319 315 312 310 308 308 307 306 306 307 307 306 306 305 306 304 303 302 303 302 302 303 301 300 301
327 324 322 321 320 318 316 315 313 312 310 309 306 307 306 306 306 305 304 303 302 304 303 302 302 301 299 299 302 301 298 297
320 319 318 315 314 314 315 315 315 311 308 307 307 307 306 305 304 303 303 302 302 302 300 299 298 298 297 297 297 297 298 298
315 314 312 313 313 313 313 311 309 308 308 307 307 306 305 304 303 302 302 302 302 301 299 297 297 297 297 295 294 294 293 294
313 312 312 311 311 310 309 308 307 306 305 303 301 300 300 300 301 302 302 302 301 299 297 297 297 295 293 292 292 292 292 292
312 311 310 309 307 305 305 304 303 301 299 298 298 297 297 297 298 299 301 301 299 297 297 297 294 293 292 292 291 291 291 291
311 310 308 306 304 304 301 299 298 298 297 297 296 296 296 296 297 299 300 299 298 296 297 296 294 293 292 292 291 291 290 290

GFSFLT2_925_thetae_021.txt.gz
Theta_e
337 335 334 333 335 333 330 324 320 319 317 312 318 318 319 318 317 317 317 317 317 317 317 316 316 315 315 313 315 318 319 318
337 337 337 338 335 332 327 321 319 318 316 315 320 319 319 319 319 319 319 318 318 318 317 317 316 318 317 315 317 317 318 318
337 336 335 335 335 331 324 319 318 319 317 319 323 326 326 324 323 318 318 317 317 317 317 317 319 321 318 316 317 317 317 316
337 336 335 333 330 330 327 323 323 327 327 325 327 328 328 326 322 316 317 317 318 317 317 319 320 319 318 316 317 316 315 315
335 334 335 330 329 326 324 325 328 330 330 330 329 328 328 327 325 324 324 322 323 321 321 320 320 319 317 317 316 315 313 313
336 334 334 330 326 325 325 327 329 329 329 331 330 329 328 325 324 324 324 323 322 321 321 320 318 317 316 316 314 313 313 313
333 332 330 329 326 328 329 329 332 330 331 331 331 330 330 324 325 324 323 322 321 320 319 318 315 315 314 314 313 312 312 311
330 329 328 327 330 331 332 330 330 329 331 329 326 326 320 320 319 324 322 321 319 318 316 315 315 314 313 312 312 311 311 311
330 329 328 331 331 326 321 320 320 322 325 326 325 323 322 324 322 321 319 317 316 315 314 313 312 312 311 310 309 309 309 308
332 330 331 330 325 320 321 321 320 322 323 322 322 322 320 319 319 318 316 314 313 313 312 311 310 310 309 309 308 307 307 307
334 332 331 328 324 322 321 321 321 321 319 319 319 318 317 317 316 315 313 312 312 311 311 310 310 310 308 307 306 305 306 305
334 333 330 329 324 324 324 324 323 320 319 317 316 315 314 314 313 312 311 311 311 311 310 310 309 307 305 305 304 304 303 303
333 331 330 327 328 327 326 321 320 319 316 314 314 312 311 311 311 311 311 310 310 309 309 308 304 303 304 304 303 303 303 303
332 330 330 329 327 325 322 322 318 316 314 313 312 311 311 310 310 310 309 308 307 305 305 305 303 302 303 303 302 301 301 301
331 330 328 325 324 322 321 318 316 315 314 313 311 310 310 309 308 308 306 305 303 303 304 304 302 301 301 301 301 301 300 299
329 326 324 323 319 317 317 317 318 315 313 312 311 310 309 308 306 305 304 303 303 303 302 302 300 300 300 299 299 299 299 298
323 321 317 316 317 317 316 315 314 312 311 309 307 305 303 302 301 302 304 303 303 302 302 301 299 300 299 298 297 296 295 295
318 316 316 316 315 314 313 311 309 308 305 303 301 300 299 299 299 299 300 301 302 302 301 300 300 299 296 296 295 294 294 294
316 315 315 313 311 309 308 306 303 302 301 300 299 299 298 298 298 299 299 300 301 300 300 299 299 297 295 295 294 293 293 293
315 314 313 310 308 306 302 301 300 300 300 299 298 298 297 297 297 298 300 300 300 300 298 299 298 296 295 294 294 293 293 292

GFSFLT2_925_thetae_024.txt.gz
Theta_e
332 332 333 333 333 330 324 319 318 316 312 314 317 318 317 316 316 316 317 317 317 317 316 315 317 317 316 316 317 317 318 321
333 334 333 335 331 327 320 317 317 315 312 319 318 318 317 319 324 317 317 317 317 317 316 314 318 320 317 316 317 316 317 319
333 334 334 332 329 325 319 317 316 313 316 320 323 325 325 327 321 316 316 316 316 316 315 318 320 321 319 317 317 315 315 315
333 333 334 334 329 326 319 317 325 324 320 326 329 327 327 324 321 316 320 320 320 321 322 321 321 320 318 317 316 315 314 315
334 334 333 331 327 327 324 325 329 330 329 329 328 328 327 327 327 325 324 324 324 322 322 321 319 318 317 316 315 314 313 313
333 331 330 327 326 325 325 328 330 330 330 330 328 328 328 325 324 325 324 323 322 322 321 319 317 315 315 314 314 313 312 312
332 332 330 326 326 327 329 330 328 329 332 330 332 330 328 323 321 319 323 322 321 319 318 316 315 315 314 313 312 312 311 311
332 331 329 328 329 330 329 328 327 328 329 330 326 326 321 319 321 323 321 321 318 316 315 314 313 312 312 311 310 310 309 309
331 330 327 331 332 329 324 320 320 320 321 324 326 325 322 323 323 320 319 318 315 314 313 312 311 311 310 310 309 309 307 307
330 328 330 332 329 321 321 321 321 321 321 322 322 323 323 320 320 318 317 314 313 313 312 311 311 311 311 309 309 307 306 305
330 330 332 329 324 321 321 322 322 321 320 320 319 318 318 317 316 315 312 312 312 312 312 311 311 310 308 306 306 305 305 304
331 333 329 328 322 322 323 325 325 321 320 318 317 315 315 315 314 312 312 312 311 310 310 309 309 306 304 303 305 304 303 302
333 332 330 328 324 325 327 325 322 320 317 316 314 313 312 311 312 311 311 310 309 307 306 306 306 304 303 304 303 302 301 300
333 331 329 328 328 328 326 322 321 317 315 314 312 312 311 311 310 310 309 308 306 304 303 304 305 303 302 301 301 301 301 300
331 331 330 330 329 325 321 318 316 315 314 312 312 311 311 310 309 307 306 305 304 304 303 303 303 301 301 301 300 299 300 299
331 330 329 326 324 322 320 318 317 315 313 313 312 311 309 306 304 303 304 305 305 304 303 303 302 301 300 300 299 298 296 296
331 328 324 322 319 319 318 316 314 313 311 308 307 303 301 300 300 299 299 299 301 303 303 302 301 300 300 299 297 297 296 295
324 321 318 318 318 317 315 312 310 307 303 302 301 300 299 299 299 299 299 300 300 302 302 301 300 300 300 297 296 296 295 294
318 317 317 316 314 311 309 305 304 303 303 301 300 299 299 298 298 298 298 300 300 301 301 301 300 299 298 297 295 295 294 294
317 317 316 313 310 307 304 303 304 302 301 300 299 299 298 297 297 297 297 298 299 300 300 299 299 299 298 296 296 295 294 294

GFSFLT2_925_thetae_027.txt.gz
Theta_e
332 333 333 332 327 320 317 317 314 309 311 316 315 314 314 314 315 315 315 315 315 315 314 315 319 317 316 317 316 315 318 318
325 331 333 331 326 319 317 316 313 311 317 316 315 314 315 317 314 315 315 315 315 315 316 318 320 320 319 317 316 315 316 315
327 332 331 329 323 317 315 314 312 317 317 319 324 320 325 324 314 314 315 315 318 321 321 320 320 319 317 317 316 315 314 314
331 330 331 326 320 315 315 315 313 320 326 327 328 327 327 322 318 317 323 320 321 322 322 321 319 317 316 316 315 314 313 312
331 331 330 323 320 315 325 326 325 324 327 328 326 327 322 322 323 322 325 323 323 322 321 318 315 315 315 314 314 313 312 312
331 333 331 325 323 324 326 329 330 329 330 329 328 328 328 325 324 320 324 323 320 318 317 316 315 314 313 313 311 311 311 311
333 332 327 327 327 325 327 330 330 330 330 330 330 329 327 323 320 319 321 320 320 318 315 314 314 312 311 310 310 309 309 307
331 329 326 327 329 329 329 329 329 330 330 329 330 326 324 319 320 323 320 320 317 315 313 312 311 311 310 310 310 309 308 307
333 327 328 329 329 328 328 326 323 320 320 321 325 325 322 322 321 319 319 315 313 313 312 311 311 311 310 310 308 308 307 306
331 328 331 330 329 327 321 320 320 320 320 321 323 323 323 320 320 318 316 313 312 312 311 311 311 310 309 307 305 304 304 304
329 327 332 330 328 321 321 322 321 320 320 319 319 318 317 317 316 316 311 311 312 311 311 309 308 308 305 303 302 304 303 303
328 330 332 330 323 321 323 324 324 320 319 317 316 315 315 314 313 311 312 311 310 309 307 306 305 305 304 303 303 302 301 301
330 330 331 328 320 322 325 325 321 321 317 315 314 312 312 311 311 311 310 309 308 306 304 303 303 304 303 300 300 300 300 300
332 331 329 326 320 323 326 322 321 316 316 314 312 311 311 310 310 310 309 308 305 304 304 303 303 303 301 300 298 299 299 299
331 331 329 328 326 326 326 322 316 315 314 312 312 311 311 310 308 307 306 305 305 304 303 304 302 302 301 300 297 297 296 297
331 330 329 327 327 328 324 317 314 314 313 312 311 310 308 303 301 300 300 300 300 302 303 302 302 301 300 299 299 297 294 293
330 328 328 329 329 321 318 316 314 314 312 309 305 304 302 301 300 299 299 298 299 299 301 302 302 300 300 300 299 296 296 293
330 329 323 319 321 319 317 314 311 307 305 305 302 301 299 299 298 298 297 298 299 300 301 301 301 300 300 298 297 295 294 293
326 320 317 317 317 314 313 311 308 308 305 304 301 299 298 298 297 297 297 297 298 299 300 300 299 299 299 298 297 296 295 294
317 317 316 316 314 310 307 307 307 306 304 300 299 299 298 297 296 296 296 296 296 296 298 297 298 299 298 298 296 296 296 294

GFSFLT2_925_thetae_033.txt.gz
Theta_e
331 330 322 319 317 316 312 311 311 314 314 312 312 313 313 313 314 314 314 314 317 320 319 318 317 317 316 316 314 314 313 313
328 324 321 317 316 315 311 308 313 313 312 312 313 313 314 314 314 314 315 316 317 319 320 319 318 316 316 315 314 314 313 312
324 325 324 321 318 314 311 308 314 313 313 313 314 314 314 315 315 315 318 318 319 320 320 319 316 316 315 314 314 313 312 311
322 320 323 322 318 316 311 312 317 314 314 314 316 319 315 315 315 316 317 320 321 321 320 317 316 315 314 313 312 312 311 311
321 324 328 325 322 318 312 316 317 316 316 322 324 324 319 316 318 320 321 322 322 321 316 315 314 313 312 311 310 309 308 308
322 323 330 325 321 317 313 318 317 321 323 324 325 325 323 322 323 324 323 321 319 316 315 313 312 310 310 309 309 308 307 306
324 328 331 324 319 317 314 318 322 324 326 326 326 325 326 323 322 322 320 319 317 315 313 312 311 310 310 309 308 307 306 305
329 330 331 324 318 317 315 318 322 329 329 327 327 325 323 321 320 319 319 317 315 313 312 311 310 310 309 308 306 304 303 303
328 329 330 326 317 323 323 324 327 330 329 328 327 325 324 321 320 319 316 313 312 312 311 310 310 309 308 306 305 302 301 301
329 330 330 325 319 323 325 328 329 329 329 329 328 324 321 320 318 315 313 312 311 311 310 309 308 306 304 304 302 301 300 299
330 330 330 326 326 326 329 330 329 324 322 322 325 324 322 319 317 314 312 311 310 310 308 307 303 302 303 302 302 301 300 299
332 331 331 327 328 328 325 322 320 320 320 321 322 322 320 317 313 312 311 311 310 308 306 303 302 302 302 302 302 300 299 299
329 329 328 328 326 323 321 321 320 319 319 319 317 317 315 314 312 311 310 309 307 304 303 303 302 302 302 301 301 299 298 298
329 328 328 328 326 323 321 322 320 318 317 315 315 314 313 312 311 310 308 306 304 304 303 303 302 302 301 299 295 298 299 298
330 328 328 327 326 322 322 323 320 318 315 314 312 311 310 310 309 307 306 304 302 300 300 302 302 301 301 301 296 295 295 298
329 328 328 328 326 322 323 324 318 318 316 313 311 310 310 309 307 304 300 299 298 298 298 299 301 301 300 299 299 297 293 293
328 328 327 327 327 323 323 322 319 316 312 311 310 309 308 304 300 298 297 297 296 296 297 299 300 301 300 299 299 298 296 293
328 327 326 326 327 323 322 322 317 314 311 310 308 304 300 298 298 297 296 296 295 295 297 299 300 299 299 298 298 297 295 293
328 327 327 327 328 327 322 323 319 316 312 310 303 300 298 297 297 296 297 295 295 295 295 296 297 298 298 298 298 297 297 296
328 328 328 328 328 327 326 323 320 315 311 307 302 299 298 297 297 299 295 295 295 294 295 295 295 297 298 298 296 296 297 296

GFSFLT2_925_thetae_036.txt.gz
Theta_e
332 327 322 317 314 314 314 316 319 315 314 313 314 313 313 313 314 314 317 319 319 318 317 317 317 316 315 314 314 313 312 312
330 324 317 320 318 314 316 314 318 315 312 314 313 313 314 314 315 315 316 318 319 318 318 317 316 316 315 314 313 313 312 312
320 319 319 319 316 315 315 316 312 311 313 313 313 314 315 315 315 316 318 318 320 320 318 316 316 314 314 313 313 312 311 311
321 321 321 319 316 316 314 313 312 313 314 314 314 314 315 315 316 317 319 320 320 320 317 316 314 314 313 312 311 310 310 310
322 321 318 317 318 313 309 316 314 314 314 314 316 315 315 316 317 318 321 322 321 317 315 315 314 312 310 309 308 307 307 308
322 321 320 325 320 314 311 316 315 315 316 317 323 320 317 317 321 323 322 318 318 316 315 312 311 310 309 309 308 307 306 306
321 323 327 325 319 317 313 317 317 316 319 323 325 325 322 322 324 322 320 317 316 314 312 311 311 310 309 308 307 306 305 304
321 324 328 327 322 319 315 318 318 321 324 326 326 324 324 323 322 320 318 316 314 313 312 311 310 309 308 306 304 303 302 302
323 322 329 329 323 319 315 318 321 326 327 326 326 324 323 320 319 318 317 315 314 312 311 310 310 308 306 303 302 301 300 300
323 327 330 330 324 318 315 318 324 329 328 327 325 324 321 320 319 318 315 313 312 311 310 309 307 304 302 301 301 300 299 299
326 328 329 329 326 319 323 324 327 329 328 327 326 324 321 320 319 316 313 312 310 309 308 306 303 301 301 302 301 300 298 298
328 329 329 329 326 320 324 328 329 329 327 325 325 324 321 318 315 313 311 310 309 308 304 302 301 301 301 302 301 299 298 297
329 329 329 330 326 326 328 328 325 322 320 320 321 322 320 316 313 310 309 309 306 303 303 302 301 301 301 300 299 298 298 297
331 330 330 330 327 327 326 325 322 320 320 319 319 319 316 312 311 309 308 305 304 303 302 302 301 301 300 298 295 297 298 298
331 331 329 329 327 326 324 321 320 319 318 316 315 314 311 310 309 308 305 303 299 298 298 299 300 300 300 300 296 296 295 297
330 330 329 327 326 326 323 322 320 318 317 314 312 311 310 309 308 304 300 298 296 296 296 297 298 300 300 300 299 297 295 294
329 330 330 326 326 326 322 322 320 318 316 312 310 309 308 306 302 299 297 296 296 295 295 295 297 299 300 299 299 298 297 293
328 328 328 327 326 325 323 322 320 318 314 310 308 307 303 300 298 297 299 297 295 294 294 295 298 299 298 298 298 297 296 294
327 327 327 326 325 325 324 322 322 319 314 310 307 302 300 298 298 298 301 300 296 294 293 294 295 296 297 298 298 297 297 296
326 326 327 326 326 325 324 322 322 318 313 310 306 304 300 298 297 301 305 294 295 294 294 294 295 295 296 298 297 295 296 296

GFSFLT2_925_thetae_039.txt.gz
Theta_e
331 327 324 326 316 314 315 322 316 320 321 315 314 316 317 317 317 317 317 317 316 317 317 316 315 315 314 313 313 312 318 317
328 324 317 315 319 318 316 316 319 318 314 314 313 313 314 315 316 318 319 318 318 318 317 316 315 314 314 313 312 312 318 318
320 316 319 320 324 318 319 317 320 316 314 314 313 315 315 315 316 317 318 319 318 318 317 316 315 314 313 313 312 312 315 317
316 318 316 312 316 319 319 321 319 314 313 313 314 315 316 316 317 318 318 320 319 317 316 315 314 313 312 311 310 310 310 311
319 320 319 320 315 313 313 317 316 313 313 314 315 315 316 316 317 319 320 321 318 316 315 314 313 311 310 310 309 308 307 308
319 316 314 317 318 314 319 317 313 313 314 314 315 315 316 317 319 321 322 320 318 315 313 311 310 310 310 309 308 306 305 305
319 319 319 321 323 316 317 315 314 314 314 318 318 317 316 318 322 321 318 317 315 314 312 311 311 310 308 307 307 305 302 302
322 320 319 325 323 318 314 317 315 315 319 322 324 323 321 322 323 320 318 315 314 314 313 312 310 309 308 306 303 300 300 300
321 321 326 328 324 320 313 317 317 317 321 325 326 323 323 323 321 318 316 315 314 313 311 310 309 307 304 301 300 300 301 301
322 324 325 329 326 319 315 316 318 321 324 325 326 324 323 321 318 317 316 314 313 311 310 308 306 304 302 301 301 301 300 299
324 325 323 329 328 320 317 315 321 327 328 327 324 322 321 319 318 317 314 312 311 310 308 306 303 303 302 301 301 300 298 298
326 324 325 329 329 322 319 317 323 328 328 326 324 323 321 320 317 315 313 311 309 308 305 301 301 301 301 301 300 299 298 297
327 328 328 329 328 322 323 324 326 328 327 326 325 323 322 318 315 313 310 309 308 303 302 301 301 299 302 302 301 299 298 297
328 328 328 329 328 324 323 324 326 327 324 321 321 322 320 316 314 311 309 308 304 303 300 301 302 300 301 301 302 300 299 298
328 329 328 328 328 325 324 325 325 320 319 319 319 319 316 313 311 310 308 305 302 299 297 298 301 300 300 301 301 301 300 299
326 328 330 329 328 326 325 324 323 319 317 316 315 314 312 311 310 308 306 301 298 295 296 298 299 301 300 300 300 300 300 300
327 327 328 328 329 326 324 323 321 319 318 314 313 311 310 310 308 306 302 298 297 296 296 297 297 296 299 300 300 299 298 298
328 328 327 327 326 325 325 323 321 319 317 312 311 310 309 307 305 302 299 299 296 297 301 296 296 298 299 299 298 298 298 297
328 328 327 327 327 324 323 322 322 320 318 314 310 308 306 304 301 298 299 299 301 303 294 294 295 298 298 298 298 298 297 297
328 328 327 329 327 327 324 322 322 320 320 317 312 309 306 302 298 298 302 304 300 297 294 294 294 294 295 296 298 298 297 296

GFSFLT2_925_thetae_042.txt.gz
Theta_e
331 329 328 328 328 324 318 321 321 322 321 321 319 319 317 317 316 316 316 316 316 316 316 316 314 314 313 312 312 316 318 319
329 326 324 325 325 321 320 320 321 317 317 319 318 317 317 316 317 316 316 316 316 316 316 315 314 314 314 313 313 317 318 318
324 320 314 315 321 328 323 321 319 316 316 317 318 321 321 321 321 318 318 317 317 317 316 315 314 314 313 313 315 315 316 316
320 317 318 320 325 326 328 326 323 319 314 318 321 322 321 321 320 319 318 318 317 316 315 314 317 317 314 313 314 314 314 314
317 314 314 316 321 324 327 326 321 320 320 322 324 323 322 322 321 322 321 319 318 317 316 317 316 315 314 313 312 311 311 310
314 313 312 315 315 316 317 317 319 321 322 323 323 322 322 322 323 325 322 321 319 318 317 316 315 314 313 312 311 310 309 308
318 319 317 312 312 315 320 322 321 321 322 322 322 321 322 323 323 323 321 320 318 317 316 315 314 313 312 311 310 307 305 304
317 316 315 317 320 319 319 320 320 323 321 323 324 322 323 325 324 322 320 319 318 317 316 316 314 312 311 309 306 304 304 304
317 320 322 322 324 322 319 321 321 321 321 327 326 326 325 325 323 321 319 318 317 317 315 314 312 310 309 306 304 304 303 304
323 321 323 326 327 324 319 322 321 321 325 328 328 327 326 324 322 320 318 318 317 317 315 313 312 309 306 305 304 303 303 303
324 324 324 329 328 324 323 322 322 323 327 328 327 325 324 323 321 320 318 318 317 315 313 312 309 307 305 304 304 303 302 301
324 325 328 329 329 326 322 320 322 327 329 329 327 325 322 322 321 319 318 316 315 313 311 308 307 305 302 303 304 303 302 302
326 327 328 329 330 327 323 321 324 328 329 330 327 326 323 322 321 318 316 315 314 312 309 308 307 304 305 307 306 304 303 302
328 327 328 330 330 329 323 324 323 325 327 329 328 326 322 321 319 317 315 314 312 310 308 307 305 304 307 307 311 306 303 302
328 328 330 330 329 328 325 326 328 328 327 326 325 323 321 319 317 316 314 312 311 309 307 304 307 306 304 305 307 308 304 303
327 329 330 330 330 329 327 325 325 326 326 324 323 321 319 317 316 314 313 311 309 307 304 305 304 305 303 303 302 302 304 305
328 328 331 330 330 329 329 328 327 327 326 322 320 318 317 315 314 312 311 309 307 304 304 304 303 302 303 303 303 302 302 302
328 329 329 331 331 330 330 330 330 327 323 320 318 316 314 312 311 310 309 306 305 304 305 304 305 300 301 301 301 302 301 300
331 330 329 330 330 327 328 329 329 325 323 320 317 315 312 310 308 307 306 304 304 304 305 301 297 302 301 301 301 300 299 299
333 332 330 330 328 326 327 326 326 323 324 320 317 312 311 308 306 305 304 303 303 305 300 295 300 300 300 300 299 300 299 298

GFSFLT2_925_thetae_045.txt.gz
Theta_e
333 330 331 330 328 328 325 327 329 326 325 322 320 320 318 316 316 316 318 318 316 316 315 314 315 314 313 313 317 319 320 320
331 330 328 329 327 324 324 328 327 325 321 319 319 318 316 315 315 316 316 316 316 316 315 315 315 315 314 316 317 318 319 319
326 324 327 326 323 323 326 328 322 320 320 318 318 317 319 321 320 316 316 316 317 316 315 315 315 314 314 315 316 316 316 316
325 325 324 323 322 326 327 328 324 323 320 320 321 321 323 323 318 317 317 317 317 316 316 317 319 318 316 315 315 315 314 314
320 318 314 313 312 316 325 325 323 322 319 322 322 323 322 323 322 321 320 317 318 317 317 319 320 318 318 316 314 313 312 311
319 319 319 321 322 322 324 325 323 321 321 324 324 324 323 323 323 324 323 323 321 321 321 320 319 318 317 314 314 312 309 308
315 316 317 317 316 316 321 321 318 317 320 324 324 323 323 324 325 326 325 324 323 321 320 319 318 317 315 313 311 308 307 306
313 315 317 316 316 316 319 317 318 322 323 324 323 323 324 324 325 325 324 323 322 321 320 319 318 315 314 311 308 306 307 306
317 313 313 313 313 315 316 319 322 323 322 323 325 324 324 326 326 325 324 323 322 321 320 319 316 314 312 309 307 306 306 306
315 313 312 317 318 318 318 320 321 320 322 325 327 326 326 327 326 325 324 323 322 321 320 319 315 313 310 309 308 307 306 305
318 318 319 321 321 323 321 320 322 320 321 325 328 329 329 328 326 325 323 322 322 321 319 317 314 311 310 308 308 308 306 304
320 322 323 325 327 325 323 320 322 321 322 325 328 329 328 327 326 325 323 322 321 320 318 315 312 310 308 307 309 309 307 306
325 324 323 327 328 325 322 321 321 322 325 326 328 328 327 326 325 325 323 322 321 318 316 313 311 309 309 312 312 310 307 306
325 325 325 328 328 328 324 322 320 322 325 328 329 329 328 326 326 324 323 321 319 317 314 312 311 309 312 313 315 311 308 307
326 326 328 328 328 328 327 323 322 322 325 327 329 328 328 326 326 323 322 320 318 316 314 312 310 310 310 310 311 313 308 308
328 328 328 328 328 329 327 324 325 327 327 328 328 328 328 326 324 322 320 319 317 315 313 311 310 311 309 307 307 307 308 308
329 329 329 329 330 329 329 327 326 327 327 328 328 327 326 324 322 321 319 318 316 314 310 309 309 309 309 309 307 307 306 306
330 329 329 329 330 330 330 329 329 328 328 328 327 326 324 322 320 319 317 315 313 312 308 308 307 307 305 305 306 305 306 305
329 329 328 329 330 331 330 331 331 327 329 329 325 324 322 321 319 316 315 312 310 309 306 308 306 303 302 305 303 304 303 303
330 330 330 329 331 332 328 331 329 327 324 327 323 322 320 318 316 313 311 309 307 305 306 305 300 301 303 302 303 302 302 302

GFSFLT2_925_thetae_048.txt.gz
Theta_e
337 336 335 333 331 327 323 321 322 326 325 324 324 327 328 329 327 323 318 316 316 314 315 315 315 314 317 318 319 320 320 319
333 332 330 329 328 329 329 329 328 326 323 322 320 319 319 319 320 320 316 316 316 315 316 316 316 315 316 317 317 318 319 319
328 327 324 323 320 325 326 327 326 325 322 320 317 315 316 317 318 317 316 316 316 316 316 316 317 314 315 316 316 316 317 318
326 324 321 317 315 318 320 324 326 323 320 318 317 317 323 318 316 316 316 317 316 316 317 317 318 317 316 315 314 314 313 315
324 320 318 318 318 317 318 318 325 322 319 321 321 323 323 317 316 316 317 316 316 316 318 319 320 318 317 315 314 313 311 311
321 319 318 320 321 319 318 324 322 320 323 324 324 322 322 319 320 322 318 319 318 319 319 321 319 318 315 315 313 310 307 309
318 319 315 315 313 315 319 323 321 321 324 322 324 323 324 323 323 324 323 322 321 322 321 320 319 317 314 313 310 307 307 308
316 317 313 312 318 320 319 319 316 319 318 321 324 323 323 324 326 326 325 325 324 322 320 320 319 316 314 311 308 307 307 306
318 318 317 318 316 314 317 319 318 319 321 324 323 324 323 325 325 326 325 324 323 322 321 320 318 315 313 309 308 307 307 306
315 316 316 315 315 317 317 318 319 322 321 323 323 324 324 324 326 326 324 323 322 322 321 320 318 314 312 309 308 308 307 306
315 316 315 314 316 314 314 315 316 314 315 323 324 323 327 325 327 326 324 323 323 322 321 320 317 314 311 310 308 309 308 307
315 314 314 315 316 313 314 319 321 322 322 323 326 327 327 328 327 326 324 323 323 322 321 319 316 314 311 308 308 309 309 307
315 314 316 318 320 319 322 321 322 322 322 321 326 327 328 329 327 326 324 324 323 322 319 317 313 311 309 309 311 310 310 308
321 320 319 321 321 322 325 323 321 323 323 323 328 327 328 328 327 326 325 324 323 321 319 315 313 311 310 313 313 311 310 309
323 324 323 324 326 326 327 323 321 320 322 326 327 328 328 328 327 327 325 324 322 320 318 315 313 310 310 312 311 311 308 309
326 326 325 324 327 328 328 325 324 322 322 327 327 326 328 328 327 326 324 323 322 319 317 314 313 312 311 311 309 308 306 305
327 326 326 327 327 329 328 327 323 323 322 324 326 328 327 327 327 325 324 322 320 319 316 314 312 311 310 309 309 309 308 307
328 328 327 329 328 326 329 328 326 326 328 328 328 328 327 327 326 324 322 321 319 318 315 311 310 310 309 308 306 306 306 307
330 331 330 330 330 329 329 330 329 327 328 328 327 323 325 325 324 323 321 320 319 315 313 309 309 307 307 303 305 304 304 304
331 331 330 330 330 331 330 324 330 329 328 329 327 323 320 324 323 321 320 318 315 311 310 308 308 307 300 304 303 303 303 303

GFSFLT2_925_thetae_051.txt.gz
Theta_e
334 335 334 333 333 327 325 323 322 323 326 327 328 330 330 329 327 317 316 314 314 315 315 313 313 318 319 318 319 318 318 312
336 335 333 330 326 323 326 326 323 322 325 329 331 332 330 327 322 316 315 315 315 317 316 314 317 317 317 316 318 318 318 312
333 331 327 326 323 322 329 328 325 324 324 326 329 330 329 324 318 316 316 315 316 317 317 314 315 315 315 315 315 318 317 313
328 326 323 321 320 317 324 328 325 323 320 320 320 320 321 321 316 316 316 316 316 317 317 315 316 316 315 314 313 314 313 311
326 323 320 318 326 328 326 325 322 321 317 317 321 318 318 317 316 316 316 316 317 317 317 318 319 316 315 314 310 310 310 309
322 321 321 323 320 318 318 321 320 319 324 320 323 321 317 316 316 317 317 317 318 317 318 320 318 317 313 312 311 308 308 308
319 319 319 316 311 312 317 322 320 322 324 322 323 323 319 317 317 318 318 319 319 319 321 319 318 315 314 312 308 307 307 308
319 318 317 318 320 320 320 321 321 322 323 323 323 323 322 320 322 322 321 321 321 321 320 319 318 315 314 311 307 307 306 306
318 318 319 318 314 313 313 315 320 321 319 321 324 323 323 325 323 324 324 324 323 322 321 320 318 315 314 310 307 307 307 306
315 314 315 314 313 315 317 319 317 316 316 320 323 323 324 324 325 325 324 324 323 322 320 320 318 315 313 309 308 307 307 307
314 313 313 313 316 317 316 317 317 314 319 322 322 323 325 323 325 325 324 324 323 322 321 320 319 316 312 310 308 308 308 307
316 315 314 316 318 316 314 314 318 317 318 315 321 319 322 326 325 326 326 324 323 322 321 320 319 315 312 311 309 308 309 308
317 316 316 315 315 315 315 317 317 317 314 316 318 321 322 325 326 326 326 324 323 322 322 320 318 314 312 309 308 308 309 309
315 315 315 315 318 313 313 315 318 322 320 322 322 323 324 326 325 326 326 324 323 323 322 319 317 312 310 310 309 312 311 310
314 314 315 314 319 318 315 316 322 321 322 321 322 321 325 325 326 326 326 325 324 323 322 320 316 313 311 312 308 308 307 309
315 314 314 316 317 319 318 321 323 322 321 322 322 324 327 326 326 326 326 325 324 323 321 319 316 312 309 310 311 309 305 304
319 317 316 317 318 318 321 324 325 322 321 319 322 326 325 325 325 324 326 326 324 322 320 319 316 314 310 310 310 309 308 306
321 321 321 321 321 323 326 327 327 323 323 321 323 325 326 325 323 325 326 325 323 322 319 318 316 313 311 309 309 307 307 307
324 324 324 324 323 323 326 328 327 326 324 324 322 325 326 324 321 325 326 324 322 320 319 317 315 311 309 310 308 306 305 305
326 326 325 325 325 325 327 328 327 327 322 328 326 326 326 323 324 325 325 323 322 320 317 314 311 309 309 308 307 304 303 303

GFSFLT2_925_thetae_054.txt.gz
Theta_e
336 335 336 333 331 328 323 329 328 329 330 330 328 328 323 320 315 314 313 312 312 312 313 318 316 316 318 320 318 314 311 311
334 330 331 332 330 324 319 327 328 329 330 329 329 329 326 318 315 314 314 316 315 313 315 317 316 315 316 319 318 315 313 311
333 331 332 328 325 321 316 324 326 329 330 329 330 330 327 317 315 315 315 317 316 314 316 316 315 314 315 318 318 315 312 311
329 328 325 325 319 321 321 323 326 331 333 331 330 328 324 316 316 315 315 317 317 314 315 315 315 314 313 315 314 312 311 310
326 325 325 323 319 315 327 325 328 330 332 331 328 326 320 316 316 316 317 316 317 316 316 318 316 314 313 312 311 311 309 307
324 323 323 323 325 330 327 325 323 323 323 324 323 322 317 316 317 316 318 318 317 317 319 318 316 314 313 312 309 309 308 307
323 323 328 326 330 328 325 322 318 318 320 317 317 316 316 316 317 318 318 317 317 318 320 318 317 314 313 309 307 307 307 308
321 322 325 328 327 326 322 320 321 319 322 320 319 317 317 317 317 318 318 318 318 319 320 319 317 314 313 310 307 307 306 306
321 321 318 319 319 323 323 320 323 321 322 322 320 320 318 317 317 318 319 320 320 320 321 319 318 316 313 310 307 306 306 305
318 318 316 314 316 322 321 321 324 323 324 324 324 323 323 322 322 323 322 321 321 321 320 319 319 316 314 310 307 307 307 307
317 317 317 317 316 320 319 320 321 322 319 319 323 324 324 324 325 324 325 324 323 322 320 320 319 316 314 310 308 307 307 307
316 317 316 316 314 314 314 317 318 319 317 317 322 323 323 324 324 325 324 324 323 322 321 320 319 319 315 310 308 308 308 308
316 316 315 315 315 316 316 318 317 318 316 317 318 319 321 323 324 324 324 324 323 322 321 321 320 319 313 310 309 308 308 308
315 315 314 315 316 316 316 314 316 315 316 316 316 313 314 316 320 324 324 324 324 323 322 321 320 316 312 309 310 310 309 308
315 315 314 316 318 316 315 314 316 316 317 318 315 317 319 320 323 323 325 325 325 323 322 322 320 315 311 312 309 310 307 309
316 316 314 315 316 316 313 314 315 317 320 321 320 320 321 321 323 324 324 324 326 325 323 322 321 316 311 310 311 310 307 307
315 316 315 315 315 318 315 314 315 317 321 323 320 320 320 322 323 325 325 323 324 325 323 322 321 319 315 309 308 309 309 306
314 314 315 315 314 317 318 316 316 319 322 323 322 320 321 323 324 325 325 324 324 325 323 322 320 317 314 311 311 309 308 308
316 314 314 314 314 316 317 317 316 319 321 322 322 320 321 325 325 325 323 321 323 322 324 322 319 317 314 312 311 310 310 308
317 317 315 314 314 315 315 316 318 321 324 324 323 321 320 322 325 325 323 322 324 324 322 320 318 315 313 313 310 310 309 304

GFSFLT2_925_thetae_057.txt.gz
Theta_e
333 332 332 331 327 325 321 326 329 331 332 329 325 321 317 314 314 316 317 315 316 317 319 321 320 319 318 315 313 312 312 315
334 335 334 329 326 323 317 326 330 330 331 327 325 320 315 313 312 311 311 312 315 315 315 316 317 319 318 316 314 312 311 313
333 332 329 328 326 322 317 326 329 330 331 327 324 321 315 313 313 314 313 313 315 314 314 315 317 318 318 316 314 311 311 313
331 330 329 326 323 319 318 323 327 331 331 331 325 320 315 314 315 316 315 314 315 314 315 314 315 316 317 315 312 311 310 312
328 329 327 322 316 322 321 321 322 325 328 329 328 320 316 315 315 317 316 314 315 315 316 315 314 314 315 313 311 310 309 309
326 326 323 320 316 313 319 326 324 325 326 329 328 319 316 315 316 317 317 315 315 317 319 316 314 312 311 311 310 309 307 307
325 324 322 322 321 320 326 325 314 325 328 329 325 317 316 316 316 317 317 317 318 319 318 316 315 312 311 310 308 308 307 307
325 324 323 320 319 323 327 326 327 329 329 327 321 316 316 317 317 317 317 318 319 319 320 318 317 313 311 308 307 307 306 307
324 323 323 323 327 327 325 325 326 327 326 323 317 316 316 318 317 317 317 318 318 319 320 318 316 314 312 310 307 307 306 305
322 323 322 324 324 325 322 320 319 320 318 318 316 316 316 317 317 317 318 318 318 319 320 319 317 316 314 311 308 307 307 307
320 322 318 325 322 323 321 323 321 322 320 318 318 317 317 316 318 320 319 320 319 319 320 319 319 317 315 313 308 307 307 307
319 318 316 318 322 321 321 322 322 322 321 321 323 322 324 323 324 324 324 323 322 321 321 319 319 319 316 314 309 307 306 307
318 318 316 316 319 320 321 320 321 320 319 320 322 322 323 324 324 323 324 324 324 324 322 320 319 318 316 313 311 307 307 307
317 317 316 316 315 317 316 318 319 319 318 317 319 320 321 322 323 324 324 324 323 323 322 320 319 319 316 309 306 308 307 307
316 316 316 315 315 315 315 316 317 317 317 317 317 317 316 314 316 319 321 324 323 323 322 320 320 319 316 314 310 311 308 309
315 315 316 315 315 316 315 315 315 315 316 316 316 316 316 315 319 320 321 323 324 324 324 323 321 319 311 310 311 311 309 310
315 315 315 315 315 316 316 315 314 314 315 315 314 315 316 316 317 320 321 322 323 324 324 323 321 319 316 311 309 308 309 309
315 316 315 315 314 315 317 316 315 314 314 316 316 317 318 317 318 319 320 322 324 324 324 324 323 322 318 317 314 311 309 308
315 315 315 315 313 314 316 317 315 314 314 315 316 319 321 322 321 320 320 323 324 322 322 324 323 323 320 317 314 312 313 310
315 314 314 315 315 314 315 316 316 314 314 315 317 319 321 322 322 320 321 325 324 323 320 323 323 323 321 315 312 313 312 310

GFSFLT2_925_thetae_060.txt.gz
Theta_e
335 335 328 333 332 326 324 325 326 329 326 328 328 328 329 329 325 318 318 320 320 320 318 317 314 314 313 312 312 313 316 318
336 333 333 332 331 325 322 328 329 330 326 327 326 326 326 325 320 316 318 321 321 320 319 318 317 315 314 312 312 313 316 317
334 331 330 325 325 323 319 318 325 329 324 325 323 321 322 320 315 315 316 316 318 320 320 319 318 316 314 312 311 312 314 317
332 329 325 323 323 322 319 319 319 323 323 324 321 318 314 312 312 314 315 315 315 316 316 318 318 316 314 312 311 311 313 316
330 327 325 326 323 320 321 325 325 323 325 323 319 316 313 314 314 315 314 315 315 315 316 317 317 316 314 312 310 309 312 315
328 328 328 325 321 324 323 320 321 324 321 323 319 315 315 315 314 314 314 315 316 314 314 314 315 314 313 311 310 308 309 312
326 325 325 322 318 319 321 324 321 322 322 323 318 314 315 316 316 314 314 315 317 317 314 313 313 312 311 310 309 308 308 309
323 322 321 319 319 320 322 322 322 321 321 321 318 315 315 316 317 316 314 316 318 319 316 316 314 312 310 309 308 307 307 306
323 322 319 318 316 321 325 319 317 324 320 322 319 316 315 316 317 317 317 317 319 320 318 317 315 312 309 308 307 306 306 306
323 323 321 320 318 323 326 325 322 323 324 324 321 316 316 317 317 318 317 316 318 320 319 317 316 314 312 309 307 306 306 306
322 323 322 321 320 323 325 325 321 322 323 320 322 316 317 317 317 318 317 316 317 319 320 319 317 316 314 312 309 307 307 307
321 322 321 322 323 320 322 323 324 325 324 322 320 316 316 317 317 317 317 318 318 319 319 319 318 317 315 313 311 309 307 307
320 321 319 322 318 321 321 322 321 321 319 319 317 317 316 316 317 321 321 320 320 321 321 320 319 318 317 314 313 309 307 307
318 318 318 319 320 320 321 322 321 323 322 322 322 321 322 321 322 322 323 322 323 323 323 322 320 318 316 310 308 310 310 308
318 318 317 319 319 319 319 320 319 321 319 319 315 316 321 321 321 322 323 324 323 323 323 323 321 319 317 316 309 310 308 309
317 317 317 317 317 317 316 317 318 317 318 319 318 316 318 317 316 316 317 319 321 323 323 322 321 319 315 313 313 311 310 310
316 316 316 316 315 315 316 315 316 316 317 317 317 317 316 316 317 316 317 320 320 322 323 323 321 320 318 312 309 310 311 310
315 315 316 315 315 315 314 315 315 315 315 315 316 315 316 315 316 317 317 318 320 321 322 323 322 322 320 318 315 312 309 309
315 315 314 315 315 315 315 315 315 314 314 314 315 315 315 315 315 317 318 319 319 319 321 321 322 322 321 321 320 319 314 311
314 314 315 314 314 314 315 315 316 315 315 314 314 314 315 315 315 318 321 321 321 320 321 322 323 321 322 322 321 318 314 312

GFSFLT2_925_thetae_063.txt.gz
Theta_e
330 329 328 327 327 328 329 332 332 330 329 328 327 328 329 329 328 325 324 325 318 312 312 312 311 311 312 314 315 318 318 319
333 329 329 329 330 329 330 330 331 330 329 329 329 327 329 328 323 320 321 322 316 314 314 314 313 312 313 314 315 317 318 319
332 333 331 331 332 331 331 331 330 330 329 328 329 330 328 325 322 320 321 321 317 316 315 315 314 313 312 312 314 317 318 319
332 332 330 331 328 324 324 321 320 324 328 328 329 328 325 321 320 321 321 320 319 318 317 315 316 317 313 312 316 317 318 319
329 325 325 324 323 327 324 326 325 324 328 325 326 326 321 317 317 319 321 320 323 320 317 318 316 316 315 315 313 317 317 318
325 324 326 326 325 321 321 324 323 325 326 321 323 322 317 316 316 316 316 318 321 322 318 317 314 313 311 310 312 316 317 318
325 324 325 323 323 322 320 322 322 323 323 322 317 315 313 315 315 315 315 316 316 317 317 316 314 313 311 310 308 310 315 318
327 325 325 322 322 321 321 322 319 319 322 320 314 312 313 314 314 315 315 314 314 315 314 315 314 312 311 310 308 308 309 311
324 325 323 320 321 321 323 322 322 322 323 320 314 314 315 314 314 314 315 317 316 314 314 313 312 311 310 309 308 307 307 307
323 322 320 319 320 321 323 323 322 321 323 321 314 315 316 315 314 314 315 318 317 315 314 314 313 311 309 308 307 306 306 306
323 321 320 319 318 319 322 322 321 320 319 319 318 315 316 316 316 315 316 318 319 317 318 319 316 312 310 309 307 307 306 306
322 321 319 320 319 323 321 323 320 322 317 315 320 317 315 316 316 316 317 317 318 319 318 317 316 315 311 311 310 308 307 306
321 322 321 319 319 321 319 322 320 321 321 316 322 318 316 316 316 317 316 317 317 318 318 318 318 317 315 313 312 310 308 307
320 321 321 321 320 321 319 320 321 321 321 322 320 320 316 317 317 317 317 317 319 318 318 319 319 318 318 315 319 315 313 311
319 319 320 321 320 319 320 321 321 322 322 318 316 320 316 316 317 317 318 320 321 320 320 321 321 319 318 320 318 322 315 310
319 318 318 319 319 318 320 320 319 320 320 320 319 317 318 320 318 318 321 320 322 322 320 322 322 321 316 316 316 316 320 321
319 318 318 318 320 318 318 320 319 319 320 320 321 319 318 316 316 318 319 318 317 319 321 322 322 321 319 316 314 314 314 316
318 318 318 317 318 318 317 317 318 318 318 319 318 317 315 315 315 317 317 316 318 319 320 321 322 321 320 318 317 314 314 312
317 317 317 317 317 317 316 317 316 317 318 317 318 317 316 316 316 317 317 317 318 319 319 320 321 322 321 321 321 317 318 315
317 316 317 317 316 316 316 316 316 316 317 316 316 317 317 316 316 315 315 315 318 320 321 321 321 321 320 321 320 319 317 316

GFSFLT2_925_thetae_066.txt.gz
Theta_e
335 333 331 332 331 333 336 337 334 333 331 331 331 330 329 331 331 332 330 323 311 313 312 312 313 314 315 317 319 320 320 320
336 335 334 333 332 333 332 335 333 332 332 332 331 328 329 329 329 329 327 315 311 311 311 311 311 312 314 317 318 320 320 320
335 332 333 334 332 330 330 331 331 331 332 332 329 331 329 328 328 327 321 313 313 313 313 312 312 313 313 315 319 320 321 320
334 333 331 331 331 332 330 329 329 329 332 328 330 330 329 325 326 324 319 313 314 314 313 313 317 317 316 317 319 320 321 320
332 332 332 331 331 330 330 331 330 328 327 326 330 328 325 325 326 326 324 317 320 318 317 319 318 317 316 317 319 320 320 320
327 329 327 328 329 329 329 329 327 325 324 327 329 325 324 325 326 325 324 323 322 321 321 320 319 318 317 317 319 319 320 320
325 324 325 324 325 325 322 322 321 319 318 322 327 324 323 323 324 325 324 324 324 322 321 320 319 318 317 317 318 319 320 319
325 324 323 324 324 324 323 322 321 319 319 323 325 322 321 321 322 322 322 324 324 322 320 319 318 318 318 316 316 318 319 320
325 325 324 323 325 323 323 324 322 324 323 324 323 321 320 321 320 320 320 321 321 320 319 318 317 317 317 316 315 316 316 317
325 324 324 322 322 322 322 322 323 320 323 322 322 321 320 319 319 319 320 319 319 319 319 319 318 317 315 314 313 313 313 314
324 322 323 322 321 323 323 320 321 319 320 322 320 318 315 317 318 319 321 320 319 318 318 318 317 316 315 313 312 311 311 310
323 322 321 322 322 322 323 322 320 319 321 322 320 318 318 318 319 320 320 322 321 320 320 320 319 318 315 314 313 312 312 311
322 321 319 322 322 322 322 322 322 319 322 322 321 321 320 320 320 320 320 322 323 322 322 321 320 319 318 317 315 313 312 312
322 321 322 321 320 320 321 322 322 320 319 318 320 321 316 317 321 319 320 321 322 323 323 322 322 320 322 322 324 320 316 314
322 321 321 322 321 322 320 321 319 321 320 318 318 321 316 315 318 320 322 322 322 322 323 323 323 323 322 322 324 324 323 320
323 321 321 321 320 321 319 319 318 322 321 319 320 320 319 316 319 322 323 320 323 323 324 323 323 323 322 322 323 322 322 322
323 322 320 320 320 320 319 318 318 320 322 321 320 321 319 317 317 319 318 319 320 322 323 324 324 321 322 322 322 322 322 322
322 322 321 319 320 320 319 320 320 321 321 322 320 320 318 317 317 318 318 318 319 321 319 320 322 324 322 324 323 323 322 322
321 322 322 321 319 319 319 319 319 318 320 320 320 318 318 318 319 318 317 317 316 317 319 323 323 323 323 323 324 323 320 319
321 322 322 321 321 321 320 318 318 319 319 319 319 320 319 319 318 317 317 317 320 321 321 322 323 323 324 324 323 322 321 320

GFSFLT2_925_thetae_069.txt.gz
Theta_e
341 341 336 332 328 324 324 330 336 336 335 334 333 331 328 328 329 329 326 325 325 320 319 318 317 318 319 320 321 322 322 321
342 340 336 332 328 325 329 334 334 334 335 334 333 330 328 331 332 328 320 318 314 314 314 314 315 316 319 320 321 321 321 321
339 339 337 335 334 334 332 328 334 333 334 332 331 332 331 331 331 326 311 311 311 312 312 314 315 315 318 320 321 321 321 320
336 336 337 337 334 334 332 332 332 333 332 330 331 330 331 331 331 323 311 311 311 311 311 312 315 316 319 319 322 322 321 321
335 335 336 334 334 333 332 332 332 331 329 330 331 329 328 330 329 319 316 314 319 317 313 319 317 316 320 321 322 322 322 321
333 333 333 333 334 332 332 331 331 330 327 324 326 325 327 328 328 322 320 321 320 319 320 320 319 317 319 321 322 321 321 321
330 327 329 329 328 330 331 330 329 324 324 323 320 323 325 327 327 324 322 323 322 320 322 321 320 319 319 321 321 322 322 321
327 325 325 327 327 327 329 329 328 325 321 320 322 324 325 326 326 326 323 324 323 322 322 321 319 319 318 319 320 321 321 321
326 324 324 324 325 325 326 326 324 322 323 323 323 322 325 325 326 325 324 324 323 323 322 320 319 319 318 318 319 320 320 321
326 324 323 324 324 323 323 323 322 322 319 320 322 324 323 324 324 324 324 325 324 322 321 319 319 319 318 317 316 317 318 319
325 324 324 324 323 323 323 322 321 319 318 321 323 324 323 322 322 322 323 323 322 321 320 319 320 319 317 316 315 315 315 315
324 323 323 323 323 323 323 322 323 322 318 322 323 323 323 322 322 322 322 321 321 320 320 321 321 320 318 316 315 315 314 313
324 323 322 322 323 324 322 322 321 322 320 321 319 322 321 320 320 319 321 321 321 321 322 322 322 320 318 318 318 316 316 315
324 323 322 322 324 324 323 321 321 319 315 320 321 320 320 318 319 320 320 323 324 323 323 324 323 322 321 321 323 320 318 317
325 324 323 323 324 323 322 322 321 320 320 321 322 322 322 320 321 322 321 322 325 325 325 325 324 324 323 323 325 325 324 321
325 324 324 322 323 323 322 323 323 321 319 321 321 323 321 321 323 320 322 322 324 325 325 325 323 322 324 324 324 325 326 324
324 324 324 324 324 323 322 321 322 322 320 320 320 320 322 320 321 319 318 324 324 324 324 324 324 321 321 324 324 323 323 324
325 323 323 323 324 323 321 321 322 320 322 321 321 321 322 321 317 316 318 320 323 320 321 321 321 321 321 322 323 323 322 323
325 325 323 322 322 322 324 323 319 319 321 323 321 321 322 321 320 317 318 318 319 319 319 318 321 320 322 322 322 324 323 323
325 324 324 322 321 322 323 322 320 320 320 323 322 321 320 320 320 318 317 317 318 319 318 319 318 320 321 322 323 323 323 324

GFSFLT2_925_thetae_072.txt.gz
Theta_e
342 341 336 336 336 330 329 326 324 333 335 336 335 334 332 331 330 330 330 328 326 324 325 324 319 320 321 321 322 323 322 321
341 340 339 335 333 330 325 325 324 327 334 336 334 332 330 330 329 328 328 326 323 319 318 316 317 320 321 321 322 321 321 321
339 338 338 336 333 327 324 324 324 329 336 335 333 330 329 330 328 326 324 322 317 317 314 315 317 320 320 321 322 322 321 320
337 336 336 335 333 331 326 325 324 329 334 333 333 330 331 330 327 322 319 316 314 312 312 312 316 320 320 321 322 321 320 320
333 334 335 335 333 333 331 329 324 326 332 331 332 332 330 330 323 316 315 312 312 311 312 314 318 319 320 322 323 321 320 320
334 333 334 334 333 332 333 331 329 333 331 331 331 330 330 329 321 315 314 314 313 311 316 317 316 320 321 322 323 322 320 319
332 331 333 334 334 332 333 332 332 331 330 330 329 328 328 326 321 314 319 317 315 315 321 318 317 317 321 322 322 321 321 319
329 325 326 330 331 332 332 332 330 328 328 326 327 326 321 323 322 319 323 319 317 320 323 320 319 319 321 321 322 321 321 320
327 325 325 327 328 327 329 328 328 325 323 322 324 321 321 322 323 320 324 321 321 321 321 321 320 319 319 320 321 322 321 321
326 324 323 325 327 328 327 326 325 324 323 324 320 320 321 322 323 323 324 322 323 324 321 321 320 319 318 319 320 320 322 321
325 325 323 324 324 325 326 326 324 323 322 319 318 322 323 324 325 325 325 323 325 322 321 320 320 320 318 318 318 318 319 320
325 324 325 323 324 323 323 323 322 322 322 322 320 319 323 320 324 324 324 325 323 322 321 319 319 319 318 317 316 316 317 317
325 324 324 324 324 323 323 323 321 321 321 321 318 319 321 324 323 323 323 323 322 321 320 321 322 321 319 316 315 315 315 314
324 324 324 323 324 323 323 323 322 320 319 319 321 323 323 323 322 323 322 321 320 321 321 322 322 320 319 318 319 318 316 316
323 324 323 323 324 323 323 322 322 321 319 321 322 322 322 321 321 321 321 321 320 321 322 323 322 322 320 321 322 322 320 318
325 324 323 323 324 323 322 322 321 319 318 319 317 319 321 321 320 320 318 321 324 324 323 323 324 322 322 323 323 324 322 323
325 324 324 324 324 323 322 322 321 319 316 316 321 321 322 321 321 322 320 321 323 324 323 323 323 322 321 320 321 321 322 321
326 325 325 323 324 323 323 323 322 321 318 318 320 322 322 322 322 323 320 320 322 323 322 322 323 321 320 321 320 321 323 323
325 325 324 325 324 324 323 324 323 322 319 318 320 320 321 322 321 323 320 323 323 323 323 323 320 320 320 320 320 321 322 322
325 325 324 324 325 324 323 323 322 323 321 319 319 320 321 321 322 321 320 318 318 320 321 319 319 319 319 318 320 320 320 321

GFSFLT2_925_thetae_075.txt.gz
Theta_e
343 341 340 339 340 339 338 331 327 326 324 334 334 336 334 331 330 330 330 329 329 328 326 323 322 322 322 322 322 322 321 320
343 341 339 339 338 338 332 331 328 327 325 330 332 334 332 331 331 329 328 327 327 326 325 320 321 321 321 322 322 321 320 320
336 340 339 337 335 333 328 326 326 327 324 324 332 333 331 331 330 329 327 325 326 325 320 319 321 321 322 321 320 320 320 319
337 337 336 337 334 331 325 324 325 324 325 324 333 332 331 329 329 328 325 320 320 321 315 319 320 321 321 322 321 320 320 318
335 333 333 335 332 328 327 324 323 326 325 327 333 331 330 328 328 326 322 315 315 315 316 319 320 321 321 321 321 320 318 318
333 333 332 333 334 332 328 325 326 325 332 332 331 330 329 327 325 321 319 314 312 312 313 319 320 321 322 322 320 320 318 318
333 333 333 334 334 333 331 329 327 326 331 331 330 329 328 325 320 316 314 312 311 311 313 319 320 321 322 322 321 320 319 317
330 328 331 332 333 332 332 332 329 328 330 330 330 330 327 317 314 312 313 311 311 315 316 318 318 320 321 322 321 320 318 317
328 324 324 329 331 332 332 331 330 330 330 329 328 329 327 319 313 313 314 311 316 320 318 316 317 320 320 322 321 321 319 316
326 324 324 326 327 329 330 330 329 329 328 324 328 326 325 323 313 318 319 313 317 321 322 318 319 319 320 321 321 321 321 319
324 324 324 324 327 327 329 328 328 327 327 327 325 323 322 318 315 322 323 316 318 321 321 320 319 318 319 320 321 322 321 320
324 323 324 324 324 326 326 326 325 325 325 325 324 320 321 317 322 322 324 321 322 322 321 320 319 318 318 319 319 320 321 320
325 324 322 324 324 324 324 323 323 323 322 323 322 320 320 321 323 322 324 323 323 322 321 320 319 319 318 317 317 317 318 318
325 324 323 324 324 324 323 323 322 323 322 322 320 321 322 323 324 322 324 324 323 321 321 321 320 319 317 316 317 316 316 316
324 323 323 324 323 323 323 322 321 321 322 321 320 321 322 322 320 322 323 321 322 321 320 321 321 320 318 318 319 318 317 316
323 323 323 324 324 323 323 322 321 320 321 320 320 320 321 323 323 324 323 322 322 320 321 321 321 321 320 318 321 321 319 319
323 324 323 324 324 323 322 322 321 320 319 320 320 322 322 322 322 322 322 321 320 320 321 320 321 321 321 321 321 322 321 319
324 323 323 324 324 323 322 322 321 320 319 319 320 321 322 322 321 321 321 321 320 319 320 322 323 322 321 320 320 320 320 320
325 323 323 324 324 323 322 322 321 319 318 317 319 320 322 322 321 321 320 319 321 319 322 323 322 321 320 321 320 320 319 321
324 324 324 324 324 323 323 322 321 319 317 316 316 319 321 321 321 322 323 322 320 322 321 322 321 319 318 321 320 320 319 319

GFSFLT2_925_thetae_078.txt.gz
Theta_e
342 341 340 340 340 340 338 335 333 330 329 327 326 332 334 334 333 333 332 331 329 329 329 328 323 323 325 326 324 323 323 322
342 340 340 340 340 337 337 335 335 326 329 325 324 330 329 331 333 332 330 327 329 328 325 322 321 323 323 323 322 321 320 320
341 338 337 338 339 339 335 333 332 329 328 324 325 329 331 331 332 331 329 327 327 325 322 321 320 322 322 321 320 317 319 320
334 337 339 337 336 336 332 331 329 325 324 325 328 330 331 331 330 329 328 327 327 324 321 320 322 322 321 321 319 317 318 319
335 337 338 336 335 332 327 326 328 328 326 326 326 325 331 331 329 327 326 326 325 323 320 320 321 321 320 320 319 318 317 319
335 333 333 334 334 331 325 324 324 326 325 325 327 329 331 330 329 326 324 325 324 321 319 320 320 321 321 320 320 319 317 318
332 332 332 334 333 330 325 325 324 325 325 325 325 330 329 329 327 325 319 321 321 317 319 320 320 321 321 320 320 318 317 318
332 332 332 334 333 330 327 325 325 325 329 328 325 329 328 327 326 321 316 315 315 316 319 319 320 321 321 320 320 318 317 318
329 327 330 332 333 332 329 326 326 326 329 329 329 328 327 325 322 316 313 312 313 314 318 320 320 321 322 320 320 318 316 317
327 326 324 329 331 332 332 329 327 327 330 329 328 326 326 321 316 313 311 311 311 313 319 318 320 320 321 320 320 319 317 317
327 324 323 325 327 330 330 330 329 328 329 329 327 327 324 315 313 311 310 310 314 316 316 316 318 320 321 321 320 318 317 316
326 323 326 324 327 328 328 329 328 328 328 327 327 326 319 312 312 314 310 312 318 319 317 317 319 319 320 321 321 320 319 318
325 323 323 323 324 326 326 326 326 326 326 326 327 326 322 314 313 318 314 314 319 320 321 318 319 318 319 317 320 321 321 320
324 323 323 322 324 324 324 325 325 325 325 324 326 324 323 319 315 322 320 316 318 319 321 319 318 318 318 317 314 316 320 320
324 323 322 323 322 324 324 323 323 323 323 323 323 322 322 321 321 322 323 319 321 321 321 320 319 318 318 317 317 316 315 316
324 323 323 324 323 322 322 322 322 322 323 323 322 321 321 321 323 322 324 324 322 322 321 320 320 318 317 317 317 317 316 318
324 323 324 324 323 323 322 322 322 322 322 322 321 321 321 322 322 323 323 323 323 322 321 321 321 319 317 320 321 321 320 317
323 323 323 324 323 322 323 321 321 321 321 320 320 320 321 322 323 321 322 321 321 319 321 321 321 320 319 318 321 321 320 319
323 323 323 323 324 323 322 322 321 320 320 320 320 320 321 322 322 323 323 323 321 319 320 321 321 321 321 320 319 320 320 320
323 323 323 323 324 323 322 322 321 321 320 319 319 320 320 320 322 322 322 322 321 320 321 320 320 321 321 321 320 319 320 319

GFSFLT2_925_thetae_081.txt.gz
Theta_e
341 341 342 340 339 338 337 338 335 335 330 331 330 328 331 331 335 334 334 334 333 332 332 329 328 328 327 327 327 327 326 324
342 341 340 342 341 340 338 337 335 332 328 328 328 329 327 327 332 333 332 332 332 332 330 329 329 327 326 326 325 325 323 321
342 341 337 338 341 340 339 336 332 331 329 329 325 326 327 331 330 331 331 331 331 331 328 324 325 326 325 324 323 322 321 321
341 338 336 336 336 339 337 334 332 330 328 325 325 326 326 329 329 331 331 330 329 327 321 321 324 325 323 322 321 321 320 320
336 338 338 337 336 335 335 334 333 331 329 326 327 325 328 326 329 329 330 329 327 323 320 321 323 322 321 320 319 319 319 319
335 336 336 337 335 335 334 334 331 329 327 326 326 329 329 329 330 331 328 329 325 321 320 322 322 321 321 319 317 318 318 319
334 336 335 335 333 333 331 330 329 328 325 324 328 328 327 330 330 329 328 328 325 320 321 322 322 321 320 319 317 317 318 319
333 331 331 331 331 331 330 327 326 328 326 325 327 327 328 329 328 328 326 327 325 321 320 319 320 320 320 320 319 318 318 318
330 331 331 332 332 330 328 325 324 325 327 326 327 327 329 328 326 327 325 326 324 320 319 319 321 320 320 320 319 318 318 318
330 330 331 333 332 331 329 327 325 324 325 326 325 328 328 327 326 325 322 324 323 318 318 319 320 320 320 319 319 318 317 318
326 325 324 329 329 331 330 328 326 325 328 328 326 326 327 326 325 323 318 320 319 317 318 318 321 320 320 319 319 318 317 318
326 325 323 325 325 328 330 329 326 326 329 328 326 326 326 324 323 319 316 315 315 316 318 316 320 321 320 319 319 318 317 317
324 323 322 323 324 325 327 328 328 328 329 328 327 326 324 322 319 315 313 312 313 314 318 316 319 320 319 318 318 318 317 317
323 324 321 323 325 325 326 327 327 328 328 328 326 324 321 318 316 313 312 312 313 316 317 316 318 319 319 317 314 317 318 317
322 323 322 323 324 324 324 326 325 325 327 326 326 325 322 316 316 314 314 314 317 317 317 317 318 317 318 317 314 316 316 318
322 323 322 322 323 324 324 324 324 324 324 324 325 324 322 317 315 318 314 316 318 319 320 319 318 317 317 317 317 315 315 316
323 322 322 322 322 323 324 323 323 323 323 323 323 323 323 321 317 319 320 317 319 320 320 321 319 318 317 317 317 317 317 317
322 322 323 322 322 322 322 322 322 322 323 322 322 323 323 322 322 322 321 322 317 318 320 321 319 319 318 317 317 319 319 318
322 322 323 323 322 322 321 321 321 322 322 322 322 322 321 321 320 321 322 321 323 322 322 321 320 320 319 317 318 318 319 320
322 322 323 324 323 321 321 320 320 320 322 322 321 321 321 321 322 322 322 322 322 322 322 321 321 321 320 318 318 319 320 320

GFSFLT2_925_thetae_084.txt.gz
Theta_e
341 340 340 342 341 340 338 337 336 336 334 331 330 330 327 328 331 330 331 333 334 334 333 332 332 331 330 330 329 329 328 326
341 342 345 340 341 340 339 337 336 331 330 330 332 331 332 331 330 330 332 332 333 333 332 331 330 330 329 328 328 327 326 325
341 342 346 339 339 340 339 338 335 333 332 330 328 327 326 326 328 329 330 331 332 332 331 330 330 328 327 327 327 326 325 323
341 341 342 339 339 339 339 337 332 332 329 327 327 326 326 326 327 329 329 329 332 331 328 327 327 326 326 326 325 324 322 321
341 341 340 338 338 340 337 334 332 328 327 328 327 327 326 327 326 328 328 328 332 330 328 327 326 325 324 324 323 321 320 320
339 340 338 336 336 339 337 334 332 330 328 328 328 326 325 327 328 327 327 328 330 324 323 324 325 324 323 322 321 320 319 320
336 337 337 336 336 336 336 332 331 330 329 328 327 325 326 327 327 327 327 329 329 321 321 323 324 323 321 320 319 319 318 319
335 334 335 333 333 333 333 332 331 328 328 328 327 326 327 327 329 328 327 328 327 321 321 322 323 321 320 319 318 318 318 319
334 334 335 335 330 329 330 330 330 327 327 326 327 328 329 328 329 328 328 328 325 320 321 322 322 320 319 318 317 318 318 319
332 333 331 330 327 327 328 330 328 327 327 325 327 328 328 328 328 328 328 328 323 319 321 321 321 320 319 318 318 318 318 319
331 330 330 329 328 328 328 330 326 327 326 325 327 328 327 327 327 325 327 327 324 319 319 320 319 319 319 319 318 318 318 318
329 328 328 328 328 329 329 329 328 325 325 325 325 326 327 327 326 324 326 325 323 319 318 319 320 319 318 318 318 318 318 318
327 325 324 326 326 328 329 328 327 326 326 327 326 325 326 326 324 325 324 323 321 318 318 318 319 319 318 317 317 318 318 318
324 323 322 323 324 324 326 328 327 327 326 327 326 324 326 324 323 323 322 319 319 317 317 317 318 319 318 317 315 316 317 317
323 322 321 322 323 324 324 325 326 326 328 326 325 324 324 321 323 322 318 317 318 316 317 317 318 319 319 318 315 318 316 317
322 323 321 321 322 324 324 325 325 324 326 325 324 325 322 320 321 319 316 314 315 316 317 316 319 317 318 317 319 317 317 315
321 323 321 322 323 323 324 324 324 325 325 325 324 323 321 317 317 315 314 313 314 315 317 316 318 318 318 317 316 315 316 315
321 321 321 321 322 322 324 324 324 324 323 323 323 322 321 319 316 313 313 314 316 314 316 318 316 318 318 318 317 317 317 317
320 321 320 321 322 321 322 323 323 323 323 322 323 323 322 321 317 315 315 316 315 315 317 318 319 318 318 317 318 318 317 316
320 319 320 321 321 321 321 321 322 323 322 322 322 322 322 322 321 319 316 318 317 318 319 320 320 320 319 318 317 317 317 317

GFSFLT2_925_thetae_087.txt.gz
Theta_e
337 338 341 340 340 339 337 335 337 339 336 340 337 338 336 334 333 330 331 333 335 335 335 335 334 333 332 331 331 331 331 331
339 340 344 339 338 339 339 337 336 337 337 337 336 335 334 332 329 326 331 332 333 333 334 334 333 332 332 331 330 329 329 328
341 340 341 340 339 340 338 337 335 335 336 333 333 331 328 328 328 330 330 333 333 332 332 332 332 331 331 330 329 327 326 326
341 344 341 340 339 339 338 338 337 335 333 331 329 328 327 326 326 325 328 330 333 332 331 331 331 329 329 328 326 325 326 325
340 342 342 338 339 337 337 338 337 334 330 330 330 328 326 325 328 328 329 330 329 329 330 330 329 328 326 325 325 325 324 323
339 340 343 342 337 335 336 336 334 333 332 331 329 326 326 326 326 326 328 328 327 329 330 328 327 326 325 325 324 323 322 321
337 339 340 341 337 335 334 333 332 331 331 329 327 326 327 326 327 328 328 328 328 328 327 326 326 325 324 323 322 322 321 321
336 338 339 339 338 334 334 332 332 331 329 328 327 327 327 327 328 327 328 327 326 327 326 326 325 324 323 322 321 321 320 321
335 337 338 336 335 334 333 331 331 330 330 328 327 327 328 327 327 328 327 327 325 325 325 324 323 322 322 321 320 320 320 321
333 334 335 335 332 332 330 330 330 330 329 328 328 328 328 327 328 327 327 326 323 322 322 322 322 321 320 320 320 319 320 320
331 332 333 333 332 330 328 328 328 329 328 327 327 328 327 328 327 327 326 326 321 322 321 322 322 321 320 320 319 319 320 320
330 330 332 330 329 328 327 327 326 327 327 324 325 326 327 328 326 326 326 325 320 321 320 321 321 321 320 320 320 320 320 319
328 328 329 328 328 328 328 327 326 326 326 326 325 326 327 328 327 327 325 323 321 319 320 320 321 320 320 319 319 319 319 319
327 327 327 327 327 328 328 328 327 326 326 325 325 325 327 327 326 325 323 323 320 318 319 320 320 320 321 320 320 319 319 319
325 326 325 324 325 325 326 326 327 327 326 327 326 326 326 326 326 324 322 321 320 318 318 320 319 319 320 322 323 324 320 319
325 324 325 324 324 324 324 325 326 326 326 326 326 326 325 325 324 323 321 320 320 319 317 319 320 320 320 318 321 322 324 323
323 323 322 322 322 323 324 324 325 325 326 325 323 323 320 320 322 321 320 319 319 319 317 318 319 320 320 319 319 319 320 321
321 321 322 321 321 322 323 324 324 325 324 322 320 320 320 321 322 321 318 317 318 318 317 317 318 320 320 319 320 319 319 320
321 321 322 322 321 322 323 324 324 324 324 323 321 319 320 319 318 317 316 316 315 316 317 316 317 319 319 319 319 319 318 319
322 322 322 321 321 321 322 323 323 324 323 323 323 321 319 319 317 315 314 313 312 314 314 316 317 317 318 318 319 318 318 317

GFSFLT2_925_thetae_090.txt.gz
Theta_e
341 340 340 340 340 338 338 337 339 344 341 340 338 337 337 335 334 334 333 334 335 336 335 336 335 335 334 334 333 333 332 332
342 340 342 341 341 339 337 338 337 336 337 338 338 337 336 335 334 333 333 333 335 336 334 335 334 334 333 332 331 332 332 332
344 343 343 342 342 342 339 337 338 338 337 337 338 337 336 335 334 332 331 330 335 334 334 335 334 333 332 331 331 331 331 330
345 343 342 342 342 342 341 341 339 339 339 339 335 337 337 334 331 327 327 326 331 332 331 333 333 332 331 331 330 330 329 328
340 343 343 343 342 341 341 342 341 339 338 338 337 337 334 332 327 326 326 329 327 330 330 330 331 331 330 330 329 329 328 327
341 343 342 341 340 339 340 339 339 338 337 335 334 333 330 331 329 326 328 328 329 331 330 330 330 330 330 329 329 327 326 324
341 340 341 340 338 339 338 337 337 337 335 335 332 331 331 328 327 327 329 328 330 330 329 329 330 329 329 328 327 326 324 322
342 340 340 339 338 337 336 336 336 335 334 333 332 330 328 329 326 329 329 329 329 327 328 329 329 328 328 327 326 324 323 321
340 340 339 339 337 336 335 334 334 333 333 332 330 329 328 328 327 329 329 327 327 327 329 328 328 327 327 326 325 322 321 321
337 339 338 338 337 335 334 333 333 333 332 331 329 328 328 330 329 328 329 327 327 327 327 327 327 327 326 325 323 321 321 321
335 339 337 336 335 334 333 333 332 332 331 330 329 328 327 328 328 328 328 327 326 325 326 326 326 326 325 324 322 322 321 320
333 337 337 335 335 334 334 330 330 329 330 329 329 327 327 328 328 328 327 325 325 325 326 326 326 325 324 323 323 322 321 320
332 336 334 334 333 333 333 330 329 327 327 328 328 327 328 328 328 327 326 325 324 325 325 325 325 324 323 323 323 322 322 320
331 334 332 334 334 334 331 329 329 327 327 327 327 326 327 327 327 326 325 324 324 325 325 325 325 324 323 323 323 322 322 321
331 333 332 334 333 332 331 329 328 327 327 326 326 326 327 328 326 326 324 323 324 324 325 325 324 323 323 323 325 325 323 322
330 332 333 332 331 331 330 329 328 328 327 326 326 326 326 327 326 325 324 324 323 324 325 325 324 324 324 323 322 321 325 325
330 332 331 330 330 329 328 327 327 329 328 327 326 326 325 326 325 325 324 324 324 323 324 324 324 324 324 324 324 325 323 323
328 331 331 330 329 327 327 327 326 327 326 325 325 325 325 325 325 325 324 323 323 323 323 324 324 323 323 323 323 323 324 323
327 330 329 328 327 326 326 326 327 327 324 323 320 320 321 322 322 322 322 322 323 323 321 323 323 324 323 324 323 323 322 322
325 327 328 326 325 325 325 326 326 326 324 322 320 320 319 319 319 320 319 320 321 321 321 321 321 322 322 322 323 323 322 322

GFSFLT2_925_thetae_093.txt.gz
Theta_e
346 342 340 337 339 337 337 339 346 345 346 344 342 341 339 337 338 338 337 338 336 334 335 337 337 335 336 335 334 334 335 333
346 345 343 343 342 338 338 337 341 346 344 340 338 338 338 337 336 337 336 337 335 334 335 336 335 334 335 334 334 333 332 333
346 345 344 344 343 342 338 338 338 339 343 341 339 338 338 337 335 336 335 334 333 332 333 334 332 333 334 333 332 332 332 331
346 345 344 344 342 343 341 341 340 341 341 341 338 338 338 337 335 334 333 332 330 329 330 333 332 333 332 332 331 331 331 330
346 345 345 344 341 342 341 341 341 341 341 340 337 337 337 336 335 333 331 328 327 326 326 330 330 333 332 332 331 330 328 328
347 344 345 344 342 341 341 340 341 341 340 340 339 338 337 335 335 332 328 327 326 329 325 326 329 332 331 331 330 330 328 328
344 344 344 344 345 343 342 341 340 341 340 339 338 338 337 336 333 332 331 328 329 327 325 327 328 330 329 330 329 329 327 327
342 345 344 343 343 342 342 341 340 341 339 338 338 336 336 334 332 331 330 328 328 327 328 327 328 327 329 329 328 326 325 323
338 345 342 343 343 341 340 339 339 339 339 339 337 336 334 333 331 330 330 328 327 328 328 328 328 327 329 328 326 324 323 322
331 341 342 341 341 341 339 339 338 338 335 336 336 335 333 332 330 330 330 329 330 329 327 328 327 327 328 326 324 324 322 322
330 337 343 340 340 340 339 337 337 337 337 335 333 332 332 330 331 329 329 328 329 328 326 326 326 327 326 325 323 321 321 321
328 335 343 339 338 337 336 336 336 335 333 333 332 331 330 331 330 329 329 328 328 327 327 326 326 326 326 324 323 321 320 320
329 333 343 339 337 335 335 336 334 333 331 330 332 331 329 329 329 329 328 328 327 327 326 326 326 327 325 324 324 323 322 320
328 332 338 338 336 336 337 335 334 332 331 329 329 330 329 329 328 328 328 327 326 325 326 326 325 326 325 324 325 323 323 322
328 331 336 337 337 337 336 335 331 330 329 329 328 328 328 328 327 328 327 326 326 325 326 325 325 325 324 323 326 325 324 322
328 331 336 335 336 336 336 332 331 331 330 329 327 327 327 327 328 328 325 325 325 325 325 325 325 325 324 324 322 321 326 325
329 331 334 335 337 335 335 334 333 331 329 330 327 327 327 327 328 326 326 325 325 325 325 325 325 325 325 324 324 323 323 325
331 332 333 334 335 335 334 333 332 329 330 330 329 327 327 327 327 325 325 324 324 325 324 324 325 325 325 324 324 324 324 324
332 332 333 334 334 334 333 332 330 329 329 330 327 326 326 326 325 325 325 324 324 324 325 325 326 326 326 325 324 324 323 322
329 332 332 333 333 333 331 330 328 329 330 327 324 323 323 325 325 324 324 324 324 324 324 325 325 325 325 324 324 324 324 322

GFSFLT2_925_thetae_096.txt.gz
Theta_e
344 338 335 332 336 337 338 337 345 344 344 344 342 341 340 338 338 339 338 338 337 337 336 337 336 335 334 335 335 333 334 334
346 341 338 334 336 338 337 337 345 343 344 344 344 342 340 339 337 337 337 338 337 335 333 332 335 335 334 334 334 333 333 333
348 345 343 342 340 338 337 338 340 344 343 344 341 341 340 339 337 336 336 335 334 333 331 330 332 332 333 334 333 332 332 332
348 346 345 344 344 343 337 339 339 341 343 342 341 340 338 338 336 335 335 333 334 332 327 325 330 330 332 332 331 332 331 331
348 346 345 345 343 343 341 341 340 340 341 341 340 339 338 339 337 335 334 333 332 330 326 325 326 330 330 330 331 331 330 330
346 347 346 345 343 344 342 342 340 341 340 341 340 338 339 337 336 334 334 332 331 328 328 327 326 330 329 330 331 330 329 329
347 346 346 347 343 342 343 342 341 342 342 341 340 339 339 337 336 334 332 331 328 328 326 326 326 327 328 328 330 329 328 328
348 346 345 346 343 344 341 342 343 342 340 341 339 339 338 337 335 334 332 329 329 327 327 325 325 327 328 328 329 328 328 328
349 346 344 346 344 345 343 341 341 342 341 339 338 338 337 335 334 333 333 331 329 329 329 326 326 327 326 327 329 328 327 326
342 347 344 345 345 344 341 343 340 339 339 340 338 338 336 335 334 333 332 331 329 329 328 328 327 327 325 327 328 325 323 323
325 347 346 344 344 342 340 339 340 338 337 337 339 338 336 334 332 332 331 329 328 328 328 328 328 326 323 326 326 324 323 323
325 346 345 343 342 340 340 339 338 339 338 335 336 336 335 333 332 331 330 329 329 329 328 328 327 326 326 326 324 323 322 322
324 340 345 343 342 340 339 338 337 336 337 337 335 333 332 331 331 330 330 329 329 328 327 327 327 325 326 324 323 321 321 322
326 335 345 342 340 339 337 336 336 335 333 334 334 333 331 330 331 330 329 329 328 328 327 326 326 326 325 323 323 323 322 320
325 330 344 342 340 337 336 335 335 335 334 332 331 331 329 328 330 330 329 328 327 327 327 325 326 325 325 323 323 323 322 323
323 327 332 342 338 337 337 338 335 333 332 331 329 328 328 328 329 329 329 328 327 327 327 325 325 325 325 323 321 322 321 322
324 326 330 341 338 337 337 337 333 331 331 330 329 328 329 329 328 328 328 327 327 326 326 325 325 325 325 324 321 323 322 321
327 329 332 339 338 337 339 335 334 333 331 332 330 328 327 326 327 328 327 327 326 326 326 325 324 324 324 324 322 324 323 322
331 331 333 337 336 337 338 335 333 334 331 330 331 328 327 327 326 327 326 326 325 326 325 325 325 324 325 324 324 323 324 324
332 332 333 337 336 337 336 334 333 332 329 330 330 328 326 326 327 326 326 325 325 325 325 325 324 324 324 324 325 323 324 324

GFSFLT2_925_thetae_099.txt.gz
Theta_e
335 331 331 333 336 335 336 337 340 341 342 343 341 340 339 339 339 338 339 338 337 337 337 335 335 335 334 335 334 334 334 333
340 333 333 334 336 336 337 336 338 342 343 343 342 341 340 339 338 337 337 338 337 335 334 332 332 332 333 335 333 334 333 333
343 334 334 335 336 336 337 335 341 342 343 342 343 342 340 340 338 337 337 337 336 335 332 331 331 331 330 333 333 333 333 332
345 342 335 336 337 336 335 337 339 342 342 342 343 342 341 340 338 337 336 337 336 333 331 327 326 329 328 330 332 332 332 332
347 346 342 340 342 337 335 337 338 341 343 342 342 340 340 339 338 337 336 336 333 333 330 327 327 326 326 328 330 332 331 332
347 347 345 343 344 343 336 336 337 337 338 340 340 340 338 337 337 336 336 334 333 331 326 325 327 326 326 329 329 330 331 330
347 347 345 344 344 343 341 338 338 337 338 339 339 339 338 337 338 336 335 333 333 330 327 326 326 325 327 327 329 330 330 329
347 347 346 342 344 344 342 340 340 339 338 339 340 339 338 338 337 336 334 333 332 331 327 327 327 325 327 327 328 329 329 328
345 346 346 343 343 343 342 341 342 340 341 339 340 339 338 338 336 335 334 333 331 329 328 326 326 325 326 326 326 328 328 327
331 345 345 345 344 343 342 342 343 341 341 340 339 339 338 337 336 335 333 332 330 328 327 326 325 326 327 327 326 327 328 327
327 344 345 346 345 343 343 341 341 342 341 340 339 339 338 337 335 334 333 332 330 328 328 328 326 326 326 327 325 326 327 326
321 342 345 345 344 344 343 341 340 340 340 340 338 338 337 336 335 334 333 332 330 329 328 328 328 328 327 325 325 324 324 324
319 343 344 344 343 342 340 339 339 339 337 337 337 337 337 336 334 333 332 331 330 329 328 328 328 327 326 326 325 324 322 322
321 344 344 343 343 341 340 339 338 337 338 336 335 334 334 333 332 331 331 330 329 328 327 327 327 326 324 324 324 322 321 322
330 344 343 342 341 339 338 338 337 336 336 337 336 334 332 331 331 330 330 330 329 328 328 327 327 326 325 323 322 323 321 322
331 344 343 341 340 338 338 336 335 335 335 334 334 333 332 331 330 330 330 330 329 328 327 327 326 325 325 324 322 321 321 322
332 343 342 340 339 338 336 335 334 334 334 333 332 331 331 330 330 329 328 329 328 327 327 326 326 325 325 324 323 321 320 320
324 341 342 340 339 337 336 335 335 332 332 331 331 329 328 328 327 327 328 328 328 327 326 326 326 325 325 324 322 321 320 320
324 328 340 339 337 336 336 335 335 333 332 330 329 329 328 328 327 328 328 327 327 327 326 326 325 325 324 324 322 321 321 320
327 335 338 337 337 337 337 336 335 333 332 331 330 328 327 328 327 325 326 327 327 327 326 326 325 325 324 324 323 323 321 321

GFSFLT2_925_thetae_102.txt.gz
Theta_e
330 331 331 332 333 335 335 335 338 338 339 340 339 338 338 338 338 339 341 338 338 337 337 335 334 335 334 335 335 335 334 334
329 329 331 334 335 335 335 335 337 337 339 340 340 339 338 339 339 338 338 338 337 335 335 333 334 334 334 334 335 334 334 333
330 328 330 333 335 335 336 338 338 340 340 341 341 340 339 339 339 338 337 337 336 334 334 332 332 332 332 333 333 334 333 333
339 333 329 332 335 336 338 339 338 339 341 340 342 341 340 340 339 338 337 336 336 334 332 329 331 330 330 330 331 332 332 332
341 338 331 331 335 337 339 339 337 340 341 340 342 342 341 340 339 338 338 337 336 334 331 332 330 328 328 330 328 330 331 332
343 342 339 331 331 336 337 339 338 339 341 340 342 341 341 340 339 337 337 337 335 332 331 327 327 327 325 326 324 329 330 331
343 344 343 340 333 335 336 337 339 336 339 340 341 339 339 338 338 337 337 336 335 333 331 329 327 327 325 325 325 327 329 330
343 345 345 344 339 338 339 335 335 337 336 338 339 338 338 338 337 337 336 335 334 333 331 326 327 328 328 329 328 329 328 329
345 345 345 345 343 340 342 340 336 336 336 337 339 339 338 337 336 337 336 335 333 332 329 326 325 326 327 326 326 328 328 329
343 345 345 345 344 341 342 342 338 337 337 337 339 340 338 337 337 337 336 334 333 331 329 326 326 326 326 327 328 328 328 328
328 342 345 345 344 343 342 342 340 340 339 338 339 340 339 338 337 336 335 334 332 331 329 327 327 326 325 326 326 327 327 328
320 332 336 343 344 343 342 342 342 341 340 340 339 340 339 338 337 336 335 332 331 330 329 328 326 326 326 327 327 326 327 327
317 331 338 343 343 342 340 340 342 342 342 341 340 340 339 338 337 335 334 331 331 330 329 328 327 327 327 326 326 326 326 325
316 328 335 342 342 342 340 340 340 340 341 341 339 339 338 337 336 334 334 332 331 330 329 328 328 328 327 325 325 323 324 323
316 324 337 340 342 341 340 339 338 338 338 338 338 338 336 335 335 334 332 331 330 329 329 328 327 327 327 324 324 324 321 322
316 327 338 341 342 340 339 338 337 337 337 336 335 335 333 334 335 333 331 330 330 329 329 327 327 326 325 324 322 321 323 322
323 332 340 341 341 339 338 337 336 336 335 335 336 335 335 334 333 332 331 330 330 329 328 327 327 326 325 324 323 321 322 322
330 341 341 340 339 338 337 336 335 334 334 333 333 334 334 333 332 331 330 330 329 328 328 328 327 326 325 324 323 321 320 321
322 341 340 339 338 337 337 336 334 334 332 332 331 331 331 331 332 331 330 329 329 328 327 327 326 326 325 325 323 321 320 320
323 335 340 338 337 336 335 335 333 333 332 332 331 330 330 329 328 328 328 327 327 327 327 326 326 325 325 325 323 322 320 320

GFSFLT2_925_thetae_105.txt.gz
Theta_e
334 335 336 336 335 337 336 337 337 338 338 337 336 337 338 339 339 339 340 339 339 337 334 334 335 335 336 336 336 335 334 335
333 336 337 337 337 336 336 337 337 338 339 338 337 337 337 339 339 339 339 337 336 337 334 334 335 335 335 335 335 335 334 334
334 333 334 335 335 336 336 337 338 338 339 339 338 338 338 339 339 338 338 337 335 335 335 334 335 335 334 333 334 334 333 333
332 332 334 334 334 335 336 338 338 338 339 341 340 338 338 339 339 338 337 337 335 335 335 333 334 334 334 333 333 333 333 333
332 332 333 333 333 335 336 338 339 340 339 339 339 340 339 339 339 339 338 337 336 335 334 332 333 333 333 332 332 332 329 331
334 333 333 333 333 334 335 338 341 339 341 339 339 341 340 339 339 339 338 337 336 334 333 330 331 331 331 330 331 330 328 330
340 338 335 333 332 332 334 336 339 338 338 338 339 341 341 339 339 339 338 337 336 335 332 330 330 329 328 329 328 327 326 325
342 341 338 334 332 331 331 335 336 338 339 338 338 341 341 340 339 339 338 337 336 335 332 330 331 329 328 327 328 326 325 325
343 342 341 338 336 333 331 332 336 338 337 337 340 341 340 340 339 338 337 336 336 334 331 329 327 327 328 325 325 325 325 327
333 343 342 342 341 338 335 333 333 334 336 334 337 340 339 339 338 337 336 335 335 333 332 330 329 327 327 328 329 328 328 328
316 339 343 343 342 341 340 337 336 335 334 335 335 338 339 338 337 336 335 334 334 332 331 330 327 327 327 327 327 326 326 328
314 321 342 343 343 342 341 339 339 339 337 334 335 336 339 339 336 335 335 335 331 330 330 328 326 326 326 327 326 327 328 328
313 323 338 342 342 341 339 339 339 340 339 337 336 337 339 339 337 335 334 335 332 330 330 329 327 327 327 327 326 326 326 327
313 319 332 341 341 342 340 339 339 339 339 339 338 338 338 339 337 334 333 332 331 330 330 328 328 327 327 325 325 323 325 326
310 317 330 338 340 341 340 339 338 337 337 338 339 339 339 339 337 336 334 332 331 331 329 329 328 328 327 326 325 325 322 323
319 312 329 336 340 340 338 338 337 338 337 339 338 339 339 338 337 335 334 333 332 330 329 328 328 327 327 326 324 322 324 323
324 315 325 335 340 339 338 337 337 336 336 337 337 337 337 337 337 335 333 332 332 331 329 328 328 327 327 326 325 322 322 322
321 328 327 336 339 339 337 337 336 335 335 335 335 334 336 336 335 333 334 333 331 330 329 329 328 327 327 326 325 323 321 322
313 328 338 338 340 339 338 337 335 335 335 335 334 333 333 333 333 332 333 332 331 330 329 328 328 327 326 326 325 323 322 322
307 311 318 338 338 337 337 336 335 334 334 333 332 332 331 332 331 332 332 331 331 330 329 328 328 327 326 326 324 323 321 321